| time (UTC) | temp C | wind direction | speed KPH | gust KPH | rain 1hr cm | rain 24hr cm | rain mn cm | humidity % | barometer mb |
| 20260906093203 | 30 | 245 | 8.0 | 19.3 | 0.00 | 0.00 | 0.00 | 50 | 1016.3 |
| 20260906093102 | 30 | 297 | 8.0 | 19.3 | 0.00 | 0.00 | 0.00 | 51 | 1016.3 |
| 20260906093002 | 30 | 286 | 8.0 | 19.3 | 0.00 | 0.00 | 0.00 | 50 | 1016.4 |
| 20260906092903 | 30 | 324 | 6.4 | 19.3 | 0.00 | 0.00 | 0.00 | 50 | 1016.3 |
| 20260906092803 | 30 | 297 | 6.4 | 19.3 | 0.00 | 0.00 | 0.00 | 50 | 1016.3 |
| 20260906092705 | 30 | 339 | 4.8 | 19.3 | 0.00 | 0.00 | 0.00 | 50 | 1016.3 |
| 20260906092605 | 30 | 333 | 4.8 | 17.7 | 0.00 | 0.00 | 0.00 | 50 | 1016.3 |
| 20260906092502 | 30 | 268 | 4.8 | 14.5 | 0.00 | 0.00 | 0.00 | 50 | 1016.3 |
| 20260906092404 | 30 | 126 | 4.8 | 14.5 | 0.00 | 0.00 | 0.00 | 51 | 1016.3 |
| 20260906092306 | 30 | 76 | 4.8 | 14.5 | 0.00 | 0.00 | 0.00 | 51 | 1016.3 |
| 20260906092203 | 30 | 297 | 6.4 | 16.1 | 0.00 | 0.00 | 0.00 | 50 | 1016.3 |
| 20260906092103 | 30 | 270 | 6.4 | 16.1 | 0.00 | 0.00 | 0.00 | 50 | 1016.3 |
| 20260906092002 | 30 | 275 | 6.4 | 16.1 | 0.00 | 0.00 | 0.00 | 50 | 1016.4 |
| 20260906091903 | 30 | 318 | 6.4 | 16.1 | 0.00 | 0.00 | 0.00 | 50 | 1016.4 |
| 20260906091804 | 30 | 337 | 6.4 | 17.7 | 0.00 | 0.00 | 0.00 | 50 | 1016.3 |
| 20260906091705 | 30 | 338 | 6.4 | 17.7 | 0.00 | 0.00 | 0.00 | 50 | 1016.4 |
| 20260906091604 | 30 | 278 | 6.4 | 17.7 | 0.00 | 0.00 | 0.00 | 51 | 1016.4 |
| 20260906091505 | 30 | 319 | 6.4 | 17.7 | 0.00 | 0.00 | 0.00 | 50 | 1016.4 |
| 20260906091401 | 30 | 45 | 6.4 | 17.7 | 0.00 | 0.00 | 0.00 | 50 | 1016.4 |
| 20260906091302 | 30 | 351 | 6.4 | 17.7 | 0.00 | 0.00 | 0.00 | 49 | 1016.4 |
| 20260906091203 | 30 | 329 | 6.4 | 17.7 | 0.00 | 0.00 | 0.00 | 49 | 1016.4 |
| 20260906091102 | 30 | 34 | 8.0 | 20.9 | 0.00 | 0.00 | 0.00 | 49 | 1016.4 |
| 20260906091002 | 30 | 29 | 8.0 | 24.1 | 0.00 | 0.00 | 0.00 | 48 | 1016.4 |
| 20260906090859 | 30 | 228 | 8.0 | 24.1 | 0.00 | 0.00 | 0.00 | 49 | 1016.4 |
| 20260906090756 | 30 | 131 | 9.7 | 24.1 | 0.00 | 0.00 | 0.00 | 48 | 1016.4 |
| 20260906090659 | 30 | 131 | 9.7 | 24.1 | 0.00 | 0.00 | 0.00 | 48 | 1016.4 |
| 20260906090557 | 30 | 346 | 9.7 | 24.1 | 0.00 | 0.00 | 0.00 | 48 | 1016.3 |
| 20260906090456 | 30 | 314 | 9.7 | 24.1 | 0.00 | 0.00 | 0.00 | 48 | 1016.4 |
| 20260906090353 | 30 | 292 | 11.3 | 24.1 | 0.00 | 0.00 | 0.00 | 48 | 1016.4 |
| 20260906090250 | 29 | 332 | 11.3 | 24.1 | 0.00 | 0.00 | 0.00 | 48 | 1016.3 |
| 20260906090151 | 29 | 271 | 9.7 | 24.1 | 0.00 | 0.00 | 0.00 | 47 | 1016.4 |
| 20260906090050 | 29 | 286 | 9.7 | 24.1 | 0.00 | 0.00 | 0.00 | 48 | 1016.4 |
| 20260906085951 | 29 | 305 | 9.7 | 24.1 | 0.00 | 0.00 | 0.00 | 48 | 1016.5 |
| 20260906085848 | 29 | 317 | 9.7 | 24.1 | 0.00 | 0.00 | 0.00 | 49 | 1016.4 |
| 20260906085748 | 29 | 311 | 9.7 | 24.1 | 0.00 | 0.00 | 0.00 | 48 | 1016.4 |
| 20260906085648 | 29 | 284 | 9.7 | 24.1 | 0.00 | 0.00 | 0.00 | 48 | 1016.4 |
| 20260906085547 | 29 | 280 | 8.0 | 24.1 | 0.00 | 0.00 | 0.00 | 49 | 1016.4 |
| 20260906085445 | 29 | 303 | 8.0 | 24.1 | 0.00 | 0.00 | 0.00 | 49 | 1016.4 |
| 20260906085344 | 29 | 278 | 8.0 | 17.7 | 0.00 | 0.00 | 0.00 | 50 | 1016.3 |
| 20260906085238 | 29 | 356 | 9.7 | 22.5 | 0.00 | 0.00 | 0.00 | 50 | 1016.3 |
| 20260906085139 | 29 | 343 | 9.7 | 22.5 | 0.00 | 0.00 | 0.00 | 50 | 1016.3 |
| 20260906085041 | 29 | 299 | 9.7 | 22.5 | 0.00 | 0.00 | 0.00 | 51 | 1016.3 |
| 20260906084939 | 29 | 320 | 8.0 | 22.5 | 0.00 | 0.00 | 0.00 | 51 | 1016.4 |
| 20260906084838 | 29 | 5 | 8.0 | 22.5 | 0.00 | 0.00 | 0.00 | 50 | 1016.3 |
| 20260906084734 | 29 | 331 | 8.0 | 22.5 | 0.00 | 0.00 | 0.00 | 51 | 1016.3 |
| 20260906084634 | 29 | 217 | 8.0 | 22.5 | 0.00 | 0.00 | 0.00 | 51 | 1016.3 |
| 20260906084533 | 29 | 320 | 9.7 | 22.5 | 0.00 | 0.00 | 0.00 | 50 | 1016.3 |
| 20260906084432 | 29 | 314 | 8.0 | 22.5 | 0.00 | 0.00 | 0.00 | 51 | 1016.3 |
| 20260906084335 | 29 | 272 | 8.0 | 22.5 | 0.00 | 0.00 | 0.00 | 50 | 1016.3 |
| 20260906084232 | 29 | 276 | 8.0 | 19.3 | 0.00 | 0.00 | 0.00 | 51 | 1016.4 |
| 20260906084131 | 29 | 272 | 8.0 | 19.3 | 0.00 | 0.00 | 0.00 | 52 | 1016.3 |
| 20260906084034 | 29 | 278 | 8.0 | 19.3 | 0.00 | 0.00 | 0.00 | 52 | 1016.4 |
| 20260906083932 | 29 | 170 | 8.0 | 19.3 | 0.00 | 0.00 | 0.00 | 52 | 1016.4 |
| 20260906083836 | 29 | 245 | 8.0 | 19.3 | 0.00 | 0.00 | 0.00 | 53 | 1016.4 |
| 20260906083732 | 29 | 284 | 8.0 | 17.7 | 0.00 | 0.00 | 0.00 | 53 | 1016.3 |
| 20260906083632 | 29 | 20 | 6.4 | 17.7 | 0.00 | 0.00 | 0.00 | 52 | 1016.4 |
| 20260906083532 | 29 | 272 | 6.4 | 17.7 | 0.00 | 0.00 | 0.00 | 53 | 1016.3 |
| 20260906083432 | 29 | 340 | 6.4 | 17.7 | 0.00 | 0.00 | 0.00 | 53 | 1016.4 |
| 20260906083334 | 28 | 307 | 8.0 | 17.7 | 0.00 | 0.00 | 0.00 | 52 | 1016.4 |
| 20260906083231 | 28 | 280 | 8.0 | 17.7 | 0.00 | 0.00 | 0.00 | 52 | 1016.4 |
| 20260906083131 | 28 | 283 | 8.0 | 19.3 | 0.00 | 0.00 | 0.00 | 53 | 1016.4 |
| 20260906083034 | 28 | 278 | 8.0 | 19.3 | 0.00 | 0.00 | 0.00 | 53 | 1016.3 |
| 20260906082932 | 28 | 344 | 8.0 | 19.3 | 0.00 | 0.00 | 0.00 | 53 | 1016.5 |
| 20260906082833 | 28 | 330 | 9.7 | 20.9 | 0.00 | 0.00 | 0.00 | 53 | 1016.4 |
| 20260906082732 | 28 | 218 | 9.7 | 20.9 | 0.00 | 0.00 | 0.00 | 53 | 1016.4 |
| 20260906082627 | 28 | 239 | 11.3 | 20.9 | 0.00 | 0.00 | 0.00 | 54 | 1016.4 |
| 20260906082526 | 28 | 30 | 11.3 | 22.5 | 0.00 | 0.00 | 0.00 | 54 | 1016.4 |
| 20260906082427 | 28 | 311 | 11.3 | 22.5 | 0.00 | 0.00 | 0.00 | 55 | 1016.4 |
| 20260906082330 | 28 | 303 | 11.3 | 22.5 | 0.00 | 0.00 | 0.00 | 54 | 1016.4 |
| 20260906082227 | 28 | 270 | 11.3 | 22.5 | 0.00 | 0.00 | 0.00 | 53 | 1016.5 |
| 20260906082121 | 28 | 293 | 11.3 | 22.5 | 0.00 | 0.00 | 0.00 | 55 | 1016.5 |
| 20260906082021 | 28 | 301 | 12.9 | 22.5 | 0.00 | 0.00 | 0.00 | 55 | 1016.5 |
| 20260906081921 | 28 | 347 | 12.9 | 22.5 | 0.00 | 0.00 | 0.00 | 54 | 1016.4 |
| 20260906081828 | 28 | 292 | 12.9 | 22.5 | 0.00 | 0.00 | 0.00 | 55 | 1016.4 |
| 20260906081721 | 28 | 330 | 12.9 | 22.5 | 0.00 | 0.00 | 0.00 | 55 | 1016.5 |
| 20260906081617 | 28 | 318 | 12.9 | 22.5 | 0.00 | 0.00 | 0.00 | 54 | 1016.5 |
| 20260906081513 | 28 | 311 | 12.9 | 25.7 | 0.00 | 0.00 | 0.00 | 55 | 1016.4 |
| 20260906081416 | 28 | 330 | 12.9 | 25.7 | 0.00 | 0.00 | 0.00 | 54 | 1016.6 |
| 20260906081316 | 28 | 303 | 12.9 | 25.7 | 0.00 | 0.00 | 0.00 | 55 | 1016.4 |
| 20260906081215 | 28 | 310 | 12.9 | 25.7 | 0.00 | 0.00 | 0.00 | 55 | 1016.5 |
| 20260906081108 | 28 | 326 | 12.9 | 25.7 | 0.00 | 0.00 | 0.00 | 55 | 1016.4 |
| 20260906080910 | 28 | 344 | 11.3 | 25.7 | 0.00 | 0.00 | 0.00 | 55 | 1016.5 |
| 20260906080807 | 28 | 305 | 11.3 | 25.7 | 0.00 | 0.00 | 0.00 | 55 | 1016.5 |
| 20260906080708 | 28 | 341 | 11.3 | 25.7 | 0.00 | 0.00 | 0.00 | 54 | 1016.5 |
| 20260906080604 | 28 | 334 | 11.3 | 25.7 | 0.00 | 0.00 | 0.00 | 54 | 1016.5 |
| 20260906080503 | 28 | 323 | 11.3 | 24.1 | 0.00 | 0.00 | 0.00 | 54 | 1016.5 |
| 20260906080406 | 28 | 16 | 11.3 | 24.1 | 0.00 | 0.00 | 0.00 | 54 | 1016.5 |
| 20260906080304 | 28 | 35 | 11.3 | 24.1 | 0.00 | 0.00 | 0.00 | 54 | 1016.5 |
| 20260906080204 | 28 | 316 | 11.3 | 24.1 | 0.00 | 0.00 | 0.00 | 54 | 1016.4 |
| 20260906080104 | 28 | 80 | 11.3 | 20.9 | 0.00 | 0.00 | 0.00 | 54 | 1016.5 |
| 20260906080005 | 28 | 307 | 11.3 | 20.9 | 0.00 | 0.00 | 0.00 | 54 | 1016.5 |
| 20260906075904 | 28 | 266 | 11.3 | 20.9 | 0.00 | 0.00 | 0.00 | 54 | 1016.5 |
| 20260906075805 | 28 | 321 | 11.3 | 20.9 | 0.00 | 0.00 | 0.00 | 54 | 1016.5 |
| 20260906075704 | 28 | 341 | 9.7 | 20.9 | 0.00 | 0.00 | 0.00 | 54 | 1016.4 |
| 20260906075604 | 28 | 299 | 9.7 | 19.3 | 0.00 | 0.00 | 0.00 | 54 | 1016.5 |
| 20260906075504 | 28 | 313 | 9.7 | 19.3 | 0.00 | 0.00 | 0.00 | 54 | 1016.5 |
| 20260906075404 | 28 | 323 | 9.7 | 19.3 | 0.00 | 0.00 | 0.00 | 55 | 1016.5 |
| 20260906075306 | 28 | 299 | 9.7 | 19.3 | 0.00 | 0.00 | 0.00 | 55 | 1016.5 |
| 20260906075203 | 28 | 299 | 9.7 | 19.3 | 0.00 | 0.00 | 0.00 | 55 | 1016.5 |
| 20260906075103 | 28 | 27 | 9.7 | 19.3 | 0.00 | 0.00 | 0.00 | 54 | 1016.6 |
| 20260906075004 | 28 | 328 | 9.7 | 19.3 | 0.00 | 0.00 | 0.00 | 54 | 1016.5 |
| 20260906074903 | 28 | 318 | 9.7 | 20.9 | 0.00 | 0.00 | 0.00 | 54 | 1016.5 |
| 20260906074804 | 28 | 314 | 9.7 | 20.9 | 0.00 | 0.00 | 0.00 | 53 | 1016.5 |
| 20260906074703 | 28 | 265 | 9.7 | 20.9 | 0.00 | 0.00 | 0.00 | 53 | 1016.6 |
| 20260906074603 | 28 | 317 | 9.7 | 20.9 | 0.00 | 0.00 | 0.00 | 52 | 1016.5 |
| 20260906074502 | 28 | 290 | 9.7 | 20.9 | 0.00 | 0.00 | 0.00 | 52 | 1016.5 |
| 20260906074357 | 28 | 284 | 9.7 | 20.9 | 0.00 | 0.00 | 0.00 | 52 | 1016.4 |
| 20260906074255 | 28 | 342 | 8.0 | 20.9 | 0.00 | 0.00 | 0.00 | 53 | 1016.4 |
| 20260906074157 | 28 | 264 | 8.0 | 20.9 | 0.00 | 0.00 | 0.00 | 53 | 1016.4 |
| 20260906074056 | 28 | 326 | 8.0 | 20.9 | 0.00 | 0.00 | 0.00 | 53 | 1016.4 |
| 20260906073957 | 28 | 344 | 8.0 | 20.9 | 0.00 | 0.00 | 0.00 | 52 | 1016.5 |
| 20260906073849 | 28 | 299 | 8.0 | 17.7 | 0.00 | 0.00 | 0.00 | 52 | 1016.4 |
| 20260906073750 | 28 | 347 | 6.4 | 17.7 | 0.00 | 0.00 | 0.00 | 52 | 1016.5 |
| 20260906073654 | 28 | 49 | 4.8 | 17.7 | 0.00 | 0.00 | 0.00 | 52 | 1016.4 |
| 20260906073550 | 28 | 0 | 4.8 | 17.7 | 0.00 | 0.00 | 0.00 | 52 | 1016.4 |
| 20260906073450 | 28 | 305 | 4.8 | 17.7 | 0.00 | 0.00 | 0.00 | 52 | 1016.4 |
| 20260906073344 | 28 | 306 | 4.8 | 17.7 | 0.00 | 0.00 | 0.00 | 52 | 1016.3 |
| 20260906073246 | 28 | 0 | 4.8 | 17.7 | 0.00 | 0.00 | 0.00 | 52 | 1016.4 |
| 20260906073144 | 28 | 266 | 4.8 | 17.7 | 0.00 | 0.00 | 0.00 | 52 | 1016.3 |
| 20260906073044 | 28 | 293 | 4.8 | 17.7 | 0.00 | 0.00 | 0.00 | 53 | 1016.3 |
| 20260906072945 | 28 | 264 | 4.8 | 14.5 | 0.00 | 0.00 | 0.00 | 53 | 1016.3 |
| 20260906072841 | 28 | 297 | 4.8 | 14.5 | 0.00 | 0.00 | 0.00 | 53 | 1016.3 |
| 20260906072738 | 28 | 76 | 4.8 | 14.5 | 0.00 | 0.00 | 0.00 | 53 | 1016.2 |
| 20260906072640 | 28 | 10 | 6.4 | 16.1 | 0.00 | 0.00 | 0.00 | 53 | 1016.2 |
| 20260906072538 | 28 | 330 | 6.4 | 16.1 | 0.00 | 0.00 | 0.00 | 53 | 1016.2 |
| 20260906072439 | 28 | 345 | 6.4 | 16.1 | 0.00 | 0.00 | 0.00 | 53 | 1016.3 |
| 20260906072335 | 28 | 31 | 6.4 | 16.1 | 0.00 | 0.00 | 0.00 | 53 | 1016.3 |
| 20260906072237 | 28 | 356 | 6.4 | 16.1 | 0.00 | 0.00 | 0.00 | 53 | 1016.3 |
| 20260906072137 | 28 | 291 | 6.4 | 16.1 | 0.00 | 0.00 | 0.00 | 54 | 1016.3 |
| 20260906072034 | 28 | 338 | 6.4 | 16.1 | 0.00 | 0.00 | 0.00 | 54 | 1016.3 |
| 20260906071936 | 28 | 10 | 4.8 | 16.1 | 0.00 | 0.00 | 0.00 | 54 | 1016.2 |
| 20260906071836 | 28 | 303 | 4.8 | 16.1 | 0.00 | 0.00 | 0.00 | 54 | 1016.2 |
| 20260906071733 | 28 | 300 | 4.8 | 16.1 | 0.00 | 0.00 | 0.00 | 54 | 1016.2 |
| 20260906071634 | 28 | 266 | 4.8 | 12.9 | 0.00 | 0.00 | 0.00 | 55 | 1016.1 |
| 20260906071534 | 28 | 332 | 4.8 | 12.9 | 0.00 | 0.00 | 0.00 | 55 | 1016.3 |
| 20260906071434 | 28 | 301 | 4.8 | 12.9 | 0.00 | 0.00 | 0.00 | 55 | 1016.2 |
| 20260906071333 | 28 | 270 | 4.8 | 12.9 | 0.00 | 0.00 | 0.00 | 56 | 1016.2 |
| 20260906071232 | 28 | 309 | 4.8 | 12.9 | 0.00 | 0.00 | 0.00 | 57 | 1016.2 |
| 20260906071132 | 28 | 301 | 6.4 | 14.5 | 0.00 | 0.00 | 0.00 | 57 | 1016.2 |
| 20260906071031 | 27 | 324 | 6.4 | 14.5 | 0.00 | 0.00 | 0.00 | 57 | 1016.2 |
| 20260906070932 | 27 | 17 | 6.4 | 16.1 | 0.00 | 0.00 | 0.00 | 57 | 1016.2 |
| 20260906070832 | 27 | 10 | 6.4 | 16.1 | 0.00 | 0.00 | 0.00 | 57 | 1016.3 |
| 20260906070733 | 27 | 310 | 6.4 | 16.1 | 0.00 | 0.00 | 0.00 | 57 | 1016.3 |
| 20260906070632 | 27 | 355 | 6.4 | 16.1 | 0.00 | 0.00 | 0.00 | 57 | 1016.3 |
| 20260906070531 | 27 | 321 | 8.0 | 16.1 | 0.00 | 0.00 | 0.00 | 57 | 1016.2 |
| 20260906070431 | 27 | 318 | 8.0 | 16.1 | 0.00 | 0.00 | 0.00 | 57 | 1016.3 |
| 20260906070332 | 27 | 251 | 8.0 | 17.7 | 0.00 | 0.00 | 0.00 | 57 | 1016.3 |
| 20260906070232 | 27 | 312 | 8.0 | 17.7 | 0.00 | 0.00 | 0.00 | 57 | 1016.2 |
| 20260906070128 | 27 | 297 | 8.0 | 17.7 | 0.00 | 0.00 | 0.00 | 57 | 1016.2 |
| 20260906070028 | 27 | 0 | 8.0 | 17.7 | 0.00 | 0.00 | 0.00 | 58 | 1016.2 |
| 20260906065927 | 27 | 322 | 8.0 | 17.7 | 0.00 | 0.00 | 0.00 | 58 | 1016.3 |
| 20260906065825 | 27 | 321 | 8.0 | 17.7 | 0.00 | 0.00 | 0.00 | 58 | 1016.3 |
| 20260906065727 | 27 | 330 | 8.0 | 17.7 | 0.00 | 0.00 | 0.00 | 58 | 1016.2 |
| 20260906065621 | 27 | 330 | 8.0 | 17.7 | 0.00 | 0.00 | 0.00 | 58 | 1016.2 |
| 20260906065521 | 27 | 307 | 8.0 | 17.7 | 0.00 | 0.00 | 0.00 | 58 | 1016.2 |
| 20260906065421 | 27 | 320 | 8.0 | 17.7 | 0.00 | 0.00 | 0.00 | 58 | 1016.2 |
| 20260906065320 | 27 | 325 | 8.0 | 14.5 | 0.00 | 0.00 | 0.00 | 58 | 1016.3 |
| 20260906065221 | 27 | 356 | 6.4 | 14.5 | 0.00 | 0.00 | 0.00 | 58 | 1016.2 |
| 20260906065114 | 27 | 0 | 6.4 | 14.5 | 0.00 | 0.00 | 0.00 | 59 | 1016.2 |
| 20260906065015 | 27 | 307 | 6.4 | 14.5 | 0.00 | 0.00 | 0.00 | 58 | 1016.2 |
| 20260906064915 | 27 | 342 | 6.4 | 14.5 | 0.00 | 0.00 | 0.00 | 58 | 1016.2 |
| 20260906064815 | 27 | 317 | 6.4 | 14.5 | 0.00 | 0.00 | 0.00 | 59 | 1016.2 |
| 20260906064714 | 27 | 309 | 6.4 | 14.5 | 0.00 | 0.00 | 0.00 | 59 | 1016.1 |
| 20260906064608 | 27 | 322 | 4.8 | 14.5 | 0.00 | 0.00 | 0.00 | 59 | 1016.2 |
| 20260906064507 | 27 | 284 | 4.8 | 14.5 | 0.00 | 0.00 | 0.00 | 60 | 1016.1 |
| 20260906064409 | 27 | 315 | 4.8 | 14.5 | 0.00 | 0.00 | 0.00 | 60 | 1016.1 |
| 20260906064309 | 27 | 278 | 4.8 | 14.5 | 0.00 | 0.00 | 0.00 | 60 | 1016.1 |
| 20260906064208 | 27 | 305 | 4.8 | 14.5 | 0.00 | 0.00 | 0.00 | 60 | 1016.0 |
| 20260906064110 | 27 | 310 | 4.8 | 14.5 | 0.00 | 0.00 | 0.00 | 60 | 1016.0 |
| 20260906064009 | 27 | 281 | 4.8 | 14.5 | 0.00 | 0.00 | 0.00 | 60 | 1016.1 |
| 20260906063909 | 27 | 298 | 4.8 | 14.5 | 0.00 | 0.00 | 0.00 | 60 | 1016.1 |
| 20260906063807 | 27 | 304 | 4.8 | 14.5 | 0.00 | 0.00 | 0.00 | 61 | 1016.1 |
| 20260906063708 | 27 | 304 | 4.8 | 14.5 | 0.00 | 0.00 | 0.00 | 61 | 1016.1 |
| 20260906063609 | 27 | 304 | 4.8 | 14.5 | 0.00 | 0.00 | 0.00 | 61 | 1016.1 |
| 20260906063508 | 27 | 251 | 4.8 | 11.3 | 0.00 | 0.00 | 0.00 | 61 | 1016.0 |
| 20260906063410 | 27 | 307 | 4.8 | 11.3 | 0.00 | 0.00 | 0.00 | 61 | 1016.1 |
| 20260906063309 | 27 | 322 | 4.8 | 11.3 | 0.00 | 0.00 | 0.00 | 61 | 1016.0 |
| 20260906063209 | 27 | 320 | 4.8 | 11.3 | 0.00 | 0.00 | 0.00 | 61 | 1016.0 |
| 20260906063108 | 27 | 281 | 4.8 | 11.3 | 0.00 | 0.00 | 0.00 | 61 | 1016.0 |
| 20260906063006 | 27 | 264 | 4.8 | 11.3 | 0.00 | 0.00 | 0.00 | 60 | 1016.0 |
| 20260906062903 | 27 | 278 | 4.8 | 11.3 | 0.00 | 0.00 | 0.00 | 60 | 1015.9 |
| 20260906062805 | 27 | 318 | 3.2 | 11.3 | 0.00 | 0.00 | 0.00 | 60 | 1016.0 |
| 20260906062703 | 27 | 277 | 3.2 | 11.3 | 0.00 | 0.00 | 0.00 | 61 | 1015.9 |
| 20260906062604 | 27 | 297 | 4.8 | 11.3 | 0.00 | 0.00 | 0.00 | 60 | 1015.9 |
| 20260906062505 | 27 | 296 | 4.8 | 11.3 | 0.00 | 0.00 | 0.00 | 60 | 1015.9 |
| 20260906062404 | 27 | 297 | 4.8 | 11.3 | 0.00 | 0.00 | 0.00 | 60 | 1015.9 |
| 20260906062306 | 27 | 301 | 4.8 | 11.3 | 0.00 | 0.00 | 0.00 | 60 | 1015.9 |
| 20260906062205 | 27 | 309 | 4.8 | 11.3 | 0.00 | 0.00 | 0.00 | 60 | 1015.9 |
| 20260906062104 | 27 | 291 | 4.8 | 8.0 | 0.00 | 0.00 | 0.00 | 60 | 1015.8 |
| 20260906062003 | 27 | 279 | 3.2 | 8.0 | 0.00 | 0.00 | 0.00 | 60 | 1015.8 |
| 20260906061904 | 27 | 306 | 3.2 | 8.0 | 0.00 | 0.00 | 0.00 | 60 | 1015.8 |
| 20260906061803 | 27 | 329 | 3.2 | 8.0 | 0.00 | 0.00 | 0.00 | 60 | 1015.8 |
| 20260906061703 | 27 | 51 | 3.2 | 8.0 | 0.00 | 0.00 | 0.00 | 60 | 1015.8 |
| 20260906061602 | 27 | 66 | 3.2 | 8.0 | 0.00 | 0.00 | 0.00 | 60 | 1015.7 |
| 20260906061503 | 27 | 289 | 3.2 | 8.0 | 0.00 | 0.00 | 0.00 | 60 | 1015.8 |
| 20260906061405 | 26 | 331 | 3.2 | 8.0 | 0.00 | 0.00 | 0.00 | 60 | 1015.8 |
| 20260906061304 | 26 | 330 | 3.2 | 9.7 | 0.00 | 0.00 | 0.00 | 60 | 1015.8 |
| 20260906061203 | 26 | 10 | 3.2 | 9.7 | 0.00 | 0.00 | 0.00 | 60 | 1015.7 |
| 20260906061102 | 26 | 10 | 3.2 | 14.5 | 0.00 | 0.00 | 0.00 | 60 | 1015.8 |
| 20260906061004 | 26 | 0 | 4.8 | 14.5 | 0.00 | 0.00 | 0.00 | 60 | 1015.8 |
| 20260906060903 | 26 | 0 | 4.8 | 14.5 | 0.00 | 0.00 | 0.00 | 60 | 1015.7 |
| 20260906060803 | 26 | 0 | 4.8 | 14.5 | 0.00 | 0.00 | 0.00 | 60 | 1015.8 |
| 20260906060703 | 26 | 0 | 4.8 | 14.5 | 0.00 | 0.00 | 0.00 | 60 | 1015.8 |
| 20260906060603 | 26 | 14 | 4.8 | 14.5 | 0.00 | 0.00 | 0.00 | 60 | 1015.8 |
| 20260906060503 | 26 | 14 | 4.8 | 14.5 | 0.00 | 0.00 | 0.00 | 61 | 1015.8 |
| 20260906060405 | 26 | 20 | 4.8 | 14.5 | 0.00 | 0.00 | 0.00 | 61 | 1015.8 |
| 20260906060303 | 26 | 25 | 4.8 | 14.5 | 0.00 | 0.00 | 0.00 | 61 | 1015.8 |
| 20260906060203 | 26 | 27 | 3.2 | 14.5 | 0.00 | 0.00 | 0.00 | 61 | 1015.8 |
| 20260906060103 | 26 | 330 | 3.2 | 12.9 | 0.00 | 0.00 | 0.00 | 61 | 1015.8 |
| 20260906060003 | 26 | 304 | 3.2 | 9.7 | 0.00 | 0.00 | 0.00 | 61 | 1015.8 |
| 20260906055904 | 26 | 304 | 3.2 | 9.7 | 0.00 | 0.00 | 0.00 | 61 | 1015.8 |
| 20260906055803 | 26 | 304 | 3.2 | 9.7 | 0.00 | 0.00 | 0.00 | 61 | 1015.8 |
| 20260906055702 | 26 | 318 | 3.2 | 9.7 | 0.00 | 0.00 | 0.00 | 62 | 1015.7 |
| 20260906055603 | 26 | 324 | 3.2 | 9.7 | 0.00 | 0.00 | 0.00 | 62 | 1015.9 |
| 20260906055503 | 26 | 332 | 3.2 | 9.7 | 0.00 | 0.00 | 0.00 | 62 | 1015.8 |
| 20260906055403 | 26 | 82 | 3.2 | 9.7 | 0.00 | 0.00 | 0.00 | 62 | 1015.8 |
| 20260906055306 | 25 | 82 | 3.2 | 9.7 | 0.00 | 0.00 | 0.00 | 62 | 1015.7 |
| 20260906055203 | 25 | 78 | 3.2 | 9.7 | 0.00 | 0.00 | 0.00 | 62 | 1015.7 |
| 20260906055104 | 25 | 46 | 3.2 | 12.9 | 0.00 | 0.00 | 0.00 | 62 | 1015.7 |
| 20260906055002 | 25 | 312 | 3.2 | 12.9 | 0.00 | 0.00 | 0.00 | 63 | 1015.7 |
| 20260906054903 | 25 | 311 | 3.2 | 12.9 | 0.00 | 0.00 | 0.00 | 63 | 1015.7 |
| 20260906054803 | 25 | 301 | 3.2 | 12.9 | 0.00 | 0.00 | 0.00 | 63 | 1015.7 |
| 20260906054704 | 25 | 323 | 3.2 | 12.9 | 0.00 | 0.00 | 0.00 | 63 | 1015.7 |
| 20260906054604 | 25 | 322 | 4.8 | 14.5 | 0.00 | 0.00 | 0.00 | 63 | 1015.8 |
| 20260906054503 | 25 | 322 | 4.8 | 14.5 | 0.00 | 0.00 | 0.00 | 63 | 1015.7 |
| 20260906054403 | 25 | 334 | 4.8 | 14.5 | 0.00 | 0.00 | 0.00 | 63 | 1015.7 |
| 20260906054303 | 25 | 25 | 4.8 | 14.5 | 0.00 | 0.00 | 0.00 | 63 | 1015.7 |
| 20260906054203 | 25 | 328 | 3.2 | 14.5 | 0.00 | 0.00 | 0.00 | 64 | 1015.7 |
| 20260906054103 | 25 | 299 | 3.2 | 14.5 | 0.00 | 0.00 | 0.00 | 64 | 1015.7 |
| 20260906054002 | 25 | 42 | 3.2 | 14.5 | 0.00 | 0.00 | 0.00 | 63 | 1015.7 |
| 20260906053903 | 25 | 91 | 3.2 | 14.5 | 0.00 | 0.00 | 0.00 | 63 | 1015.7 |
| 20260906053804 | 25 | 50 | 3.2 | 14.5 | 0.00 | 0.00 | 0.00 | 63 | 1015.7 |
| 20260906053704 | 25 | 50 | 3.2 | 14.5 | 0.00 | 0.00 | 0.00 | 64 | 1015.7 |
| 20260906053603 | 25 | 54 | 1.6 | 12.9 | 0.00 | 0.00 | 0.00 | 64 | 1015.7 |
| 20260906053502 | 25 | 60 | 1.6 | 6.4 | 0.00 | 0.00 | 0.00 | 63 | 1015.7 |
| 20260906053404 | 25 | 62 | 1.6 | 6.4 | 0.00 | 0.00 | 0.00 | 63 | 1015.6 |
| 20260906053303 | 25 | 61 | 1.6 | 6.4 | 0.00 | 0.00 | 0.00 | 63 | 1015.6 |
| 20260906053204 | 25 | 22 | 1.6 | 6.4 | 0.00 | 0.00 | 0.00 | 63 | 1015.6 |
| 20260906053103 | 25 | 48 | 0.0 | 4.8 | 0.00 | 0.00 | 0.00 | 63 | 1015.7 |
| 20260906053003 | 25 | 106 | 0.0 | 3.2 | 0.00 | 0.00 | 0.00 | 63 | 1015.7 |
| 20260906052905 | 25 | 106 | 0.0 | 3.2 | 0.00 | 0.00 | 0.00 | 63 | 1015.6 |
| 20260906052803 | 25 | 106 | 0.0 | 3.2 | 0.00 | 0.00 | 0.00 | 63 | 1015.6 |
| 20260906052704 | 25 | 148 | 0.0 | 3.2 | 0.00 | 0.00 | 0.00 | 63 | 1015.7 |
| 20260906052603 | 25 | 160 | 0.0 | 1.6 | 0.00 | 0.00 | 0.00 | 63 | 1015.6 |
| 20260906052505 | 25 | 160 | 0.0 | 1.6 | 0.00 | 0.00 | 0.00 | 63 | 1015.7 |
| 20260906052403 | 25 | 160 | 0.0 | 1.6 | 0.00 | 0.00 | 0.00 | 63 | 1015.6 |
| 20260906052306 | 25 | 160 | 1.6 | 4.8 | 0.00 | 0.00 | 0.00 | 63 | 1015.7 |
| 20260906052204 | 25 | 160 | 1.6 | 6.4 | 0.00 | 0.00 | 0.00 | 63 | 1015.6 |
| 20260906052103 | 25 | 160 | 1.6 | 6.4 | 0.00 | 0.00 | 0.00 | 63 | 1015.6 |
| 20260906052002 | 25 | 160 | 1.6 | 6.4 | 0.00 | 0.00 | 0.00 | 63 | 1015.6 |
| 20260906051904 | 25 | 160 | 1.6 | 6.4 | 0.00 | 0.00 | 0.00 | 63 | 1015.5 |
| 20260906051803 | 25 | 160 | 1.6 | 6.4 | 0.00 | 0.00 | 0.00 | 63 | 1015.6 |
| 20260906051708 | 25 | 160 | 1.6 | 6.4 | 0.00 | 0.00 | 0.00 | 63 | 1015.5 |
| 20260906051602 | 25 | 160 | 1.6 | 6.4 | 0.00 | 0.00 | 0.00 | 63 | 1015.6 |
| 20260906051503 | 25 | 160 | 3.2 | 6.4 | 0.00 | 0.00 | 0.00 | 63 | 1015.6 |
| 20260906051403 | 25 | 160 | 3.2 | 6.4 | 0.00 | 0.00 | 0.00 | 63 | 1015.5 |
| 20260906051302 | 25 | 160 | 3.2 | 6.4 | 0.00 | 0.00 | 0.00 | 63 | 1015.5 |
| 20260906051208 | 25 | 257 | 3.2 | 6.4 | 0.00 | 0.00 | 0.00 | 63 | 1015.5 |
| 20260906051103 | 25 | 257 | 3.2 | 6.4 | 0.00 | 0.00 | 0.00 | 63 | 1015.5 |
| 20260906051002 | 25 | 255 | 3.2 | 8.0 | 0.00 | 0.00 | 0.00 | 63 | 1015.4 |
| 20260906050903 | 25 | 249 | 1.6 | 8.0 | 0.00 | 0.00 | 0.00 | 63 | 1015.5 |
| 20260906050803 | 25 | 109 | 1.6 | 8.0 | 0.00 | 0.00 | 0.00 | 63 | 1015.5 |
| 20260906050705 | 25 | 109 | 1.6 | 8.0 | 0.00 | 0.00 | 0.00 | 63 | 1015.5 |
| 20260906050603 | 25 | 110 | 1.6 | 8.0 | 0.00 | 0.00 | 0.00 | 63 | 1015.5 |
| 20260906050503 | 25 | 111 | 1.6 | 8.0 | 0.00 | 0.00 | 0.00 | 63 | 1015.5 |
| 20260906050402 | 25 | 70 | 1.6 | 8.0 | 0.00 | 0.00 | 0.00 | 63 | 1015.5 |
| 20260906050304 | 25 | 66 | 1.6 | 8.0 | 0.00 | 0.00 | 0.00 | 63 | 1015.5 |
| 20260906050204 | 25 | 89 | 1.6 | 8.0 | 0.00 | 0.00 | 0.00 | 63 | 1015.5 |
| 20260906050004 | 25 | 83 | 1.6 | 6.4 | 0.00 | 0.00 | 0.00 | 63 | 1015.4 |
| 20260906045903 | 25 | 82 | 1.6 | 4.8 | 0.00 | 0.00 | 0.00 | 63 | 1015.5 |
| 20260906045803 | 25 | 82 | 1.6 | 4.8 | 0.00 | 0.00 | 0.00 | 63 | 1015.5 |
| 20260906045702 | 25 | 83 | 1.6 | 4.8 | 0.00 | 0.00 | 0.00 | 63 | 1015.5 |
| 20260906045603 | 25 | 83 | 1.6 | 4.8 | 0.00 | 0.00 | 0.00 | 63 | 1015.5 |
| 20260906045502 | 25 | 83 | 3.2 | 4.8 | 0.00 | 0.00 | 0.00 | 63 | 1015.5 |
| 20260906045402 | 25 | 83 | 3.2 | 4.8 | 0.00 | 0.00 | 0.00 | 63 | 1015.5 |
| 20260906045305 | 25 | 83 | 3.2 | 4.8 | 0.00 | 0.00 | 0.00 | 62 | 1015.5 |
| 20260906045203 | 25 | 84 | 3.2 | 4.8 | 0.00 | 0.00 | 0.00 | 62 | 1015.4 |
| 20260906045103 | 25 | 82 | 3.2 | 4.8 | 0.00 | 0.00 | 0.00 | 62 | 1015.5 |
| 20260906045028 | 25 | 21 | 3.2 | 6.4 | 0.00 | 0.00 | 0.00 | 62 | 1015.5 |
| 20260906045009 | 25 | 10 | 3.2 | 6.4 | 0.00 | 0.00 | 0.00 | 62 | 1015.5 |
| 20260906044804 | 25 | 10 | 3.2 | 8.0 | 0.00 | 0.00 | 0.00 | 62 | 1015.5 |
| 20260906044704 | 25 | 10 | 3.2 | 8.0 | 0.00 | 0.00 | 0.00 | 62 | 1015.4 |
| 20260906044604 | 25 | 10 | 3.2 | 8.0 | 0.00 | 0.00 | 0.00 | 62 | 1015.4 |
| 20260906044503 | 25 | 22 | 3.2 | 8.0 | 0.00 | 0.00 | 0.00 | 62 | 1015.5 |
| 20260906044404 | 25 | 87 | 4.8 | 8.0 | 0.00 | 0.00 | 0.00 | 62 | 1015.4 |
| 20260906044304 | 25 | 87 | 4.8 | 8.0 | 0.00 | 0.00 | 0.00 | 62 | 1015.4 |
| 20260906044203 | 24 | 88 | 4.8 | 9.7 | 0.00 | 0.00 | 0.00 | 63 | 1015.4 |
| 20260906044104 | 25 | 73 | 4.8 | 9.7 | 0.00 | 0.00 | 0.00 | 62 | 1015.4 |
| 20260906044003 | 24 | 74 | 4.8 | 9.7 | 0.00 | 0.00 | 0.00 | 63 | 1015.3 |
| 20260906043906 | 24 | 74 | 4.8 | 9.7 | 0.00 | 0.00 | 0.00 | 62 | 1015.3 |
| 20260906043803 | 24 | 69 | 4.8 | 9.7 | 0.00 | 0.00 | 0.00 | 62 | 1015.3 |
| 20260906043704 | 24 | 69 | 4.8 | 9.7 | 0.00 | 0.00 | 0.00 | 62 | 1015.3 |
| 20260906043603 | 24 | 75 | 4.8 | 9.7 | 0.00 | 0.00 | 0.00 | 62 | 1015.3 |
| 20260906043502 | 24 | 77 | 6.4 | 11.3 | 0.00 | 0.00 | 0.00 | 62 | 1015.3 |
| 20260906043402 | 24 | 65 | 6.4 | 11.3 | 0.00 | 0.00 | 0.00 | 62 | 1015.3 |
| 20260906043303 | 24 | 75 | 6.4 | 11.3 | 0.00 | 0.00 | 0.00 | 62 | 1015.3 |
| 20260906043202 | 24 | 70 | 6.4 | 11.3 | 0.00 | 0.00 | 0.00 | 62 | 1015.3 |
| 20260906043103 | 24 | 73 | 6.4 | 11.3 | 0.00 | 0.00 | 0.00 | 62 | 1015.3 |
| 20260906043005 | 24 | 81 | 6.4 | 11.3 | 0.00 | 0.00 | 0.00 | 62 | 1015.2 |
| 20260906042902 | 24 | 79 | 6.4 | 14.5 | 0.00 | 0.00 | 0.00 | 62 | 1015.2 |
| 20260906042804 | 24 | 68 | 8.0 | 14.5 | 0.00 | 0.00 | 0.00 | 62 | 1015.2 |
| 20260906042703 | 24 | 67 | 8.0 | 14.5 | 0.00 | 0.00 | 0.00 | 62 | 1015.2 |
| 20260906042603 | 24 | 73 | 8.0 | 14.5 | 0.00 | 0.00 | 0.00 | 62 | 1015.1 |
| 20260906042505 | 24 | 85 | 8.0 | 14.5 | 0.00 | 0.00 | 0.00 | 62 | 1015.1 |
| 20260906042402 | 24 | 79 | 8.0 | 14.5 | 0.00 | 0.00 | 0.00 | 62 | 1015.1 |
| 20260906042306 | 24 | 41 | 8.0 | 14.5 | 0.00 | 0.00 | 0.00 | 62 | 1015.1 |
| 20260906042205 | 24 | 58 | 8.0 | 14.5 | 0.00 | 0.00 | 0.00 | 62 | 1015.0 |
| 20260906042103 | 24 | 72 | 8.0 | 14.5 | 0.00 | 0.00 | 0.00 | 62 | 1015.0 |
| 20260906042003 | 24 | 72 | 8.0 | 14.5 | 0.00 | 0.00 | 0.00 | 62 | 1015.0 |
| 20260906041904 | 24 | 83 | 8.0 | 14.5 | 0.00 | 0.00 | 0.00 | 62 | 1015.0 |
| 20260906041803 | 24 | 83 | 6.4 | 14.5 | 0.00 | 0.00 | 0.00 | 62 | 1015.0 |
| 20260906041704 | 24 | 77 | 6.4 | 14.5 | 0.00 | 0.00 | 0.00 | 62 | 1015.0 |
| 20260906041602 | 24 | 79 | 6.4 | 14.5 | 0.00 | 0.00 | 0.00 | 62 | 1015.0 |
| 20260906041504 | 24 | 73 | 6.4 | 14.5 | 0.00 | 0.00 | 0.00 | 62 | 1014.9 |
| 20260906041403 | 24 | 76 | 6.4 | 12.9 | 0.00 | 0.00 | 0.00 | 62 | 1014.9 |
| 20260906041305 | 24 | 74 | 6.4 | 12.9 | 0.00 | 0.00 | 0.00 | 62 | 1014.9 |
| 20260906041203 | 24 | 71 | 6.4 | 12.9 | 0.00 | 0.00 | 0.00 | 62 | 1014.9 |
| 20260906041102 | 24 | 83 | 6.4 | 12.9 | 0.00 | 0.00 | 0.00 | 62 | 1014.9 |
| 20260906041002 | 24 | 68 | 6.4 | 12.9 | 0.00 | 0.00 | 0.00 | 62 | 1014.9 |
| 20260906040901 | 24 | 71 | 6.4 | 12.9 | 0.00 | 0.00 | 0.00 | 62 | 1014.8 |
| 20260906040755 | 24 | 79 | 6.4 | 12.9 | 0.00 | 0.00 | 0.00 | 62 | 1014.8 |
| 20260906040655 | 24 | 61 | 6.4 | 12.9 | 0.00 | 0.00 | 0.00 | 62 | 1014.9 |
| 20260906040555 | 24 | 93 | 6.4 | 14.5 | 0.00 | 0.00 | 0.00 | 62 | 1014.8 |
| 20260906040456 | 24 | 72 | 6.4 | 14.5 | 0.00 | 0.00 | 0.00 | 62 | 1014.8 |
| 20260906040355 | 24 | 97 | 6.4 | 14.5 | 0.00 | 0.00 | 0.00 | 62 | 1014.9 |
| 20260906040248 | 24 | 84 | 8.0 | 14.5 | 0.00 | 0.00 | 0.00 | 62 | 1014.8 |
| 20260906040147 | 24 | 77 | 8.0 | 16.1 | 0.00 | 0.00 | 0.00 | 62 | 1014.8 |
| 20260906040049 | 24 | 76 | 8.0 | 16.1 | 0.00 | 0.00 | 0.00 | 62 | 1014.7 |
| 20260906035950 | 24 | 79 | 8.0 | 16.1 | 0.00 | 0.00 | 0.00 | 63 | 1014.8 |
| 20260906035849 | 24 | 53 | 8.0 | 16.1 | 0.00 | 0.00 | 0.00 | 63 | 1014.8 |
| 20260906035744 | 24 | 83 | 8.0 | 16.1 | 0.00 | 0.00 | 0.00 | 63 | 1014.7 |
| 20260906035644 | 24 | 72 | 8.0 | 16.1 | 0.00 | 0.00 | 0.00 | 63 | 1014.7 |
| 20260906035544 | 24 | 81 | 8.0 | 16.1 | 0.00 | 0.00 | 0.00 | 63 | 1014.7 |
| 20260906035444 | 24 | 78 | 8.0 | 16.1 | 0.00 | 0.00 | 0.00 | 63 | 1014.7 |
| 20260906035342 | 24 | 84 | 6.4 | 16.1 | 0.00 | 0.00 | 0.00 | 63 | 1014.7 |
| 20260906035239 | 24 | 64 | 6.4 | 16.1 | 0.00 | 0.00 | 0.00 | 63 | 1014.7 |
| 20260906035136 | 24 | 81 | 6.4 | 11.3 | 0.00 | 0.00 | 0.00 | 63 | 1014.6 |
| 20260906035033 | 24 | 79 | 6.4 | 11.3 | 0.00 | 0.00 | 0.00 | 63 | 1014.6 |
| 20260906034933 | 24 | 69 | 4.8 | 11.3 | 0.00 | 0.00 | 0.00 | 63 | 1014.7 |
| 20260906034833 | 24 | 87 | 4.8 | 11.3 | 0.00 | 0.00 | 0.00 | 63 | 1014.8 |
| 20260906034736 | 24 | 56 | 4.8 | 11.3 | 0.00 | 0.00 | 0.00 | 63 | 1014.7 |
| 20260906034635 | 24 | 84 | 4.8 | 11.3 | 0.00 | 0.00 | 0.00 | 64 | 1014.7 |
| 20260906034535 | 24 | 89 | 4.8 | 11.3 | 0.00 | 0.00 | 0.00 | 64 | 1014.7 |
| 20260906034435 | 24 | 78 | 4.8 | 8.0 | 0.00 | 0.00 | 0.00 | 64 | 1014.7 |
| 20260906034335 | 24 | 79 | 4.8 | 8.0 | 0.00 | 0.00 | 0.00 | 64 | 1014.8 |
| 20260906034232 | 24 | 72 | 3.2 | 8.0 | 0.00 | 0.00 | 0.00 | 64 | 1014.7 |
| 20260906034131 | 24 | 57 | 3.2 | 8.0 | 0.00 | 0.00 | 0.00 | 64 | 1014.7 |
| 20260906034031 | 24 | 72 | 3.2 | 8.0 | 0.00 | 0.00 | 0.00 | 64 | 1014.7 |
| 20260906033933 | 24 | 72 | 3.2 | 8.0 | 0.00 | 0.00 | 0.00 | 64 | 1014.8 |
| 20260906033831 | 24 | 73 | 3.2 | 8.0 | 0.00 | 0.00 | 0.00 | 64 | 1014.8 |
| 20260906033733 | 24 | 70 | 3.2 | 8.0 | 0.00 | 0.00 | 0.00 | 64 | 1014.8 |
| 20260906033632 | 24 | 45 | 3.2 | 8.0 | 0.00 | 0.00 | 0.00 | 64 | 1014.8 |
| 20260906033531 | 24 | 45 | 3.2 | 8.0 | 0.00 | 0.00 | 0.00 | 63 | 1014.8 |
| 20260906033432 | 24 | 70 | 3.2 | 8.0 | 0.00 | 0.00 | 0.00 | 63 | 1014.8 |
| 20260906033332 | 24 | 74 | 3.2 | 6.4 | 0.00 | 0.00 | 0.00 | 64 | 1014.7 |
| 20260906033229 | 24 | 64 | 3.2 | 6.4 | 0.00 | 0.00 | 0.00 | 63 | 1014.8 |
| 20260906033131 | 24 | 63 | 3.2 | 8.0 | 0.00 | 0.00 | 0.00 | 64 | 1014.8 |
| 20260906033029 | 24 | 63 | 3.2 | 9.7 | 0.00 | 0.00 | 0.00 | 63 | 1014.8 |
| 20260906032929 | 24 | 63 | 3.2 | 9.7 | 0.00 | 0.00 | 0.00 | 63 | 1014.7 |
| 20260906032831 | 24 | 60 | 3.2 | 9.7 | 0.00 | 0.00 | 0.00 | 63 | 1014.8 |
| 20260906032732 | 24 | 59 | 3.2 | 9.7 | 0.00 | 0.00 | 0.00 | 64 | 1014.7 |
| 20260906032630 | 24 | 58 | 3.2 | 9.7 | 0.00 | 0.00 | 0.00 | 64 | 1014.8 |
| 20260906032529 | 24 | 72 | 3.2 | 9.7 | 0.00 | 0.00 | 0.00 | 64 | 1014.7 |
| 20260906032431 | 24 | 79 | 3.2 | 9.7 | 0.00 | 0.00 | 0.00 | 64 | 1014.8 |
| 20260906032330 | 24 | 66 | 3.2 | 9.7 | 0.00 | 0.00 | 0.00 | 64 | 1014.8 |
| 20260906032229 | 24 | 65 | 4.8 | 9.7 | 0.00 | 0.00 | 0.00 | 63 | 1014.8 |
| 20260906032126 | 24 | 33 | 4.8 | 9.7 | 0.00 | 0.00 | 0.00 | 63 | 1014.7 |
| 20260906032028 | 24 | 32 | 4.8 | 9.7 | 0.00 | 0.00 | 0.00 | 63 | 1014.8 |
| 20260906031925 | 24 | 32 | 4.8 | 9.7 | 0.00 | 0.00 | 0.00 | 63 | 1014.8 |
| 20260906031827 | 24 | 33 | 4.8 | 9.7 | 0.00 | 0.00 | 0.00 | 63 | 1014.8 |
| 20260906031725 | 24 | 31 | 4.8 | 9.7 | 0.00 | 0.00 | 0.00 | 63 | 1014.7 |
| 20260906031628 | 24 | 72 | 4.8 | 9.7 | 0.00 | 0.00 | 0.00 | 63 | 1014.8 |
| 20260906031527 | 24 | 74 | 4.8 | 9.7 | 0.00 | 0.00 | 0.00 | 63 | 1014.8 |
| 20260906031427 | 24 | 75 | 4.8 | 9.7 | 0.00 | 0.00 | 0.00 | 63 | 1014.8 |
| 20260906031326 | 24 | 72 | 4.8 | 9.7 | 0.00 | 0.00 | 0.00 | 63 | 1014.7 |
| 20260906031227 | 24 | 85 | 4.8 | 9.7 | 0.00 | 0.00 | 0.00 | 63 | 1014.7 |
| 20260906031121 | 24 | 76 | 4.8 | 9.7 | 0.00 | 0.00 | 0.00 | 63 | 1014.7 |
| 20260906031021 | 23 | 76 | 4.8 | 8.0 | 0.00 | 0.00 | 0.00 | 63 | 1014.7 |
| 20260906030921 | 23 | 76 | 4.8 | 8.0 | 0.00 | 0.00 | 0.00 | 63 | 1014.8 |
| 20260906030821 | 23 | 77 | 4.8 | 8.0 | 0.00 | 0.00 | 0.00 | 63 | 1014.8 |
| 20260906030725 | 23 | 76 | 4.8 | 8.0 | 0.00 | 0.00 | 0.00 | 63 | 1014.8 |
| 20260906030621 | 23 | 68 | 4.8 | 8.0 | 0.00 | 0.00 | 0.00 | 63 | 1014.7 |
| 20260906030522 | 23 | 72 | 4.8 | 8.0 | 0.00 | 0.00 | 0.00 | 63 | 1014.7 |
| 20260906030423 | 23 | 74 | 4.8 | 8.0 | 0.00 | 0.00 | 0.00 | 63 | 1014.7 |
| 20260906030321 | 23 | 64 | 4.8 | 8.0 | 0.00 | 0.00 | 0.00 | 63 | 1014.7 |
| 20260906030222 | 23 | 70 | 4.8 | 8.0 | 0.00 | 0.00 | 0.00 | 63 | 1014.8 |
| 20260906030123 | 23 | 76 | 4.8 | 8.0 | 0.00 | 0.00 | 0.00 | 62 | 1014.8 |
| 20260906030021 | 23 | 76 | 4.8 | 8.0 | 0.00 | 0.00 | 0.00 | 62 | 1014.8 |
| 20260906025921 | 23 | 71 | 3.2 | 8.0 | 0.00 | 0.00 | 0.00 | 62 | 1014.7 |
| 20260906025823 | 23 | 34 | 3.2 | 8.0 | 0.00 | 0.00 | 0.00 | 62 | 1014.7 |
| 20260906025721 | 23 | 24 | 3.2 | 8.0 | 0.00 | 0.00 | 0.00 | 62 | 1014.8 |
| 20260906025623 | 23 | 71 | 3.2 | 8.0 | 0.00 | 0.00 | 0.00 | 62 | 1014.7 |
| 20260906025522 | 23 | 76 | 4.8 | 8.0 | 0.00 | 0.00 | 0.00 | 62 | 1014.7 |
| 20260906025421 | 23 | 74 | 4.8 | 8.0 | 0.00 | 0.00 | 0.00 | 61 | 1014.8 |
| 20260906025323 | 23 | 68 | 4.8 | 6.4 | 0.00 | 0.00 | 0.00 | 61 | 1014.7 |
| 20260906025217 | 23 | 62 | 3.2 | 6.4 | 0.00 | 0.00 | 0.00 | 61 | 1014.8 |
| 20260906025117 | 24 | 62 | 3.2 | 6.4 | 0.00 | 0.00 | 0.00 | 60 | 1014.8 |
| 20260906025017 | 24 | 62 | 3.2 | 6.4 | 0.00 | 0.00 | 0.00 | 60 | 1014.8 |
| 20260906024917 | 24 | 62 | 3.2 | 6.4 | 0.00 | 0.00 | 0.00 | 60 | 1014.8 |
| 20260906024820 | 24 | 62 | 3.2 | 6.4 | 0.00 | 0.00 | 0.00 | 60 | 1014.9 |
| 20260906024719 | 24 | 61 | 3.2 | 6.4 | 0.00 | 0.00 | 0.00 | 60 | 1014.8 |
| 20260906024618 | 24 | 41 | 3.2 | 6.4 | 0.00 | 0.00 | 0.00 | 60 | 1014.8 |
| 20260906024517 | 24 | 22 | 3.2 | 8.0 | 0.00 | 0.00 | 0.00 | 60 | 1014.9 |
| 20260906024417 | 24 | 22 | 3.2 | 8.0 | 0.00 | 0.00 | 0.00 | 60 | 1014.9 |
| 20260906024317 | 24 | 22 | 3.2 | 8.0 | 0.00 | 0.00 | 0.00 | 60 | 1014.9 |
| 20260906024218 | 24 | 286 | 3.2 | 8.0 | 0.00 | 0.00 | 0.00 | 59 | 1014.8 |
| 20260906024117 | 24 | 286 | 3.2 | 8.0 | 0.00 | 0.00 | 0.00 | 59 | 1014.9 |
| 20260906024020 | 24 | 286 | 3.2 | 8.0 | 0.00 | 0.00 | 0.00 | 59 | 1014.9 |
| 20260906023917 | 25 | 286 | 4.8 | 8.0 | 0.00 | 0.00 | 0.00 | 59 | 1014.9 |
| 20260906023818 | 25 | 294 | 4.8 | 12.9 | 0.00 | 0.00 | 0.00 | 59 | 1014.8 |
| 20260906023722 | 25 | 50 | 4.8 | 12.9 | 0.00 | 0.00 | 0.00 | 59 | 1014.8 |
| 20260906023618 | 25 | 71 | 4.8 | 12.9 | 0.00 | 0.00 | 0.00 | 59 | 1014.7 |
| 20260906023517 | 25 | 85 | 4.8 | 14.5 | 0.00 | 0.00 | 0.00 | 59 | 1014.7 |
| 20260906023419 | 25 | 69 | 4.8 | 14.5 | 0.00 | 0.00 | 0.00 | 59 | 1014.7 |
| 20260906023312 | 25 | 68 | 4.8 | 14.5 | 0.00 | 0.00 | 0.00 | 59 | 1014.7 |
| 20260906023219 | 25 | 76 | 4.8 | 14.5 | 0.00 | 0.00 | 0.00 | 59 | 1014.7 |
| 20260906023114 | 25 | 99 | 4.8 | 14.5 | 0.00 | 0.00 | 0.00 | 59 | 1014.7 |
| 20260906023016 | 25 | 74 | 4.8 | 14.5 | 0.00 | 0.00 | 0.00 | 59 | 1014.7 |
| 20260906022914 | 25 | 56 | 4.8 | 14.5 | 0.00 | 0.00 | 0.00 | 59 | 1014.7 |
| 20260906022815 | 25 | 70 | 3.2 | 14.5 | 0.00 | 0.00 | 0.00 | 59 | 1014.6 |
| 20260906022714 | 25 | 41 | 3.2 | 14.5 | 0.00 | 0.00 | 0.00 | 59 | 1014.7 |
| 20260906022613 | 25 | 74 | 3.2 | 12.9 | 0.00 | 0.00 | 0.00 | 59 | 1014.7 |
| 20260906022513 | 25 | 76 | 1.6 | 8.0 | 0.00 | 0.00 | 0.00 | 58 | 1014.7 |
| 20260906022414 | 25 | 72 | 1.6 | 8.0 | 0.00 | 0.00 | 0.00 | 58 | 1014.6 |
| 20260906022314 | 25 | 72 | 1.6 | 8.0 | 0.00 | 0.00 | 0.00 | 58 | 1014.6 |
| 20260906022214 | 25 | 72 | 1.6 | 8.0 | 0.00 | 0.00 | 0.00 | 58 | 1014.7 |
| 20260906022115 | 25 | 72 | 1.6 | 8.0 | 0.00 | 0.00 | 0.00 | 58 | 1014.8 |
| 20260906022014 | 25 | 18 | 1.6 | 4.8 | 0.00 | 0.00 | 0.00 | 58 | 1014.8 |
| 20260906021915 | 25 | 18 | 1.6 | 4.8 | 0.00 | 0.00 | 0.00 | 58 | 1014.7 |
| 20260906021815 | 25 | 18 | 1.6 | 4.8 | 0.00 | 0.00 | 0.00 | 58 | 1014.7 |
| 20260906021714 | 25 | 18 | 1.6 | 4.8 | 0.00 | 0.00 | 0.00 | 58 | 1014.7 |
| 20260906021613 | 25 | 14 | 1.6 | 4.8 | 0.00 | 0.00 | 0.00 | 58 | 1014.7 |
| 20260906021519 | 25 | 14 | 1.6 | 12.9 | 0.00 | 0.00 | 0.00 | 58 | 1014.7 |
| 20260906021410 | 25 | 14 | 3.2 | 12.9 | 0.00 | 0.00 | 0.00 | 58 | 1014.6 |
| 20260906021309 | 25 | 14 | 3.2 | 12.9 | 0.00 | 0.00 | 0.00 | 58 | 1014.6 |
| 20260906021210 | 25 | 14 | 3.2 | 12.9 | 0.00 | 0.00 | 0.00 | 58 | 1014.7 |
| 20260906021111 | 25 | 14 | 3.2 | 12.9 | 0.00 | 0.00 | 0.00 | 58 | 1014.7 |
| 20260906021014 | 25 | 14 | 3.2 | 12.9 | 0.00 | 0.00 | 0.00 | 58 | 1014.6 |
| 20260906020910 | 25 | 14 | 3.2 | 12.9 | 0.00 | 0.00 | 0.00 | 58 | 1014.6 |
| 20260906020809 | 25 | 14 | 3.2 | 12.9 | 0.00 | 0.00 | 0.00 | 58 | 1014.6 |
| 20260906020709 | 25 | 14 | 3.2 | 12.9 | 0.00 | 0.00 | 0.00 | 58 | 1014.6 |
| 20260906020609 | 25 | 10 | 4.8 | 12.9 | 0.00 | 0.00 | 0.00 | 58 | 1014.6 |
| 20260906020511 | 25 | 10 | 4.8 | 12.9 | 0.00 | 0.00 | 0.00 | 58 | 1014.6 |
| 20260906020410 | 25 | 72 | 3.2 | 12.9 | 0.00 | 0.00 | 0.00 | 58 | 1014.6 |
| 20260906020313 | 25 | 67 | 3.2 | 12.9 | 0.00 | 0.00 | 0.00 | 58 | 1014.6 |
| 20260906020209 | 25 | 95 | 3.2 | 12.9 | 0.00 | 0.00 | 0.00 | 58 | 1014.6 |
| 20260906020109 | 25 | 72 | 3.2 | 12.9 | 0.00 | 0.00 | 0.00 | 58 | 1014.6 |
| 20260906020012 | 25 | 66 | 3.2 | 12.9 | 0.00 | 0.00 | 0.00 | 58 | 1014.6 |
| 20260906015909 | 25 | 66 | 3.2 | 12.9 | 0.00 | 0.00 | 0.00 | 58 | 1014.6 |
| 20260906015810 | 25 | 49 | 3.2 | 12.9 | 0.00 | 0.00 | 0.00 | 58 | 1014.5 |
| 20260906015709 | 25 | 65 | 3.2 | 12.9 | 0.00 | 0.00 | 0.00 | 57 | 1014.5 |
| 20260906015611 | 25 | 71 | 3.2 | 12.9 | 0.00 | 0.00 | 0.00 | 57 | 1014.5 |
| 20260906015506 | 25 | 76 | 3.2 | 8.0 | 0.00 | 0.00 | 0.00 | 57 | 1014.5 |
| 20260906015407 | 25 | 72 | 3.2 | 8.0 | 0.00 | 0.00 | 0.00 | 57 | 1014.6 |
| 20260906015306 | 25 | 77 | 3.2 | 11.3 | 0.00 | 0.00 | 0.00 | 57 | 1014.5 |
| 20260906015205 | 25 | 74 | 3.2 | 11.3 | 0.00 | 0.00 | 0.00 | 57 | 1014.5 |
| 20260906015105 | 25 | 74 | 3.2 | 11.3 | 0.00 | 0.00 | 0.00 | 57 | 1014.6 |
| 20260906015005 | 25 | 70 | 4.8 | 11.3 | 0.00 | 0.00 | 0.00 | 57 | 1014.6 |
| 20260906014905 | 25 | 70 | 4.8 | 11.3 | 0.00 | 0.00 | 0.00 | 57 | 1014.6 |
| 20260906014806 | 25 | 69 | 4.8 | 11.3 | 0.00 | 0.00 | 0.00 | 57 | 1014.6 |
| 20260906014706 | 25 | 69 | 4.8 | 14.5 | 0.00 | 0.00 | 0.00 | 57 | 1014.6 |
| 20260906014610 | 25 | 68 | 4.8 | 14.5 | 0.00 | 0.00 | 0.00 | 57 | 1014.6 |
| 20260906014506 | 25 | 84 | 4.8 | 14.5 | 0.00 | 0.00 | 0.00 | 57 | 1014.5 |
| 20260906014405 | 25 | 59 | 4.8 | 14.5 | 0.00 | 0.00 | 0.00 | 57 | 1014.5 |
| 20260906014305 | 25 | 64 | 4.8 | 14.5 | 0.00 | 0.00 | 0.00 | 57 | 1014.5 |
| 20260906014205 | 25 | 84 | 4.8 | 14.5 | 0.00 | 0.00 | 0.00 | 57 | 1014.6 |
| 20260906014106 | 25 | 87 | 4.8 | 14.5 | 0.00 | 0.00 | 0.00 | 57 | 1014.5 |
| 20260906014005 | 25 | 69 | 4.8 | 14.5 | 0.00 | 0.00 | 0.00 | 57 | 1014.5 |
| 20260906013906 | 25 | 70 | 4.8 | 14.5 | 0.00 | 0.00 | 0.00 | 57 | 1014.5 |
| 20260906013805 | 25 | 68 | 3.2 | 14.5 | 0.00 | 0.00 | 0.00 | 57 | 1014.5 |
| 20260906013707 | 25 | 90 | 3.2 | 11.3 | 0.00 | 0.00 | 0.00 | 57 | 1014.5 |
| 20260906013604 | 25 | 89 | 3.2 | 11.3 | 0.00 | 0.00 | 0.00 | 57 | 1014.5 |
| 20260906013505 | 25 | 45 | 3.2 | 11.3 | 0.00 | 0.00 | 0.00 | 57 | 1014.5 |
| 20260906013404 | 25 | 95 | 3.2 | 11.3 | 0.00 | 0.00 | 0.00 | 57 | 1014.5 |
| 20260906013303 | 25 | 88 | 3.2 | 11.3 | 0.00 | 0.00 | 0.00 | 57 | 1014.5 |
| 20260906013204 | 25 | 70 | 4.8 | 11.3 | 0.00 | 0.00 | 0.00 | 57 | 1014.6 |
| 20260906013103 | 25 | 74 | 3.2 | 11.3 | 0.00 | 0.00 | 0.00 | 57 | 1014.5 |
| 20260906013005 | 25 | 79 | 4.8 | 11.3 | 0.00 | 0.00 | 0.00 | 57 | 1014.5 |
| 20260906012904 | 25 | 56 | 4.8 | 11.3 | 0.00 | 0.00 | 0.00 | 57 | 1014.5 |
| 20260906012803 | 25 | 81 | 4.8 | 12.9 | 0.00 | 0.00 | 0.00 | 57 | 1014.6 |
| 20260906012708 | 25 | 105 | 4.8 | 14.5 | 0.00 | 0.00 | 0.00 | 57 | 1014.5 |
| 20260906012603 | 25 | 49 | 4.8 | 14.5 | 0.00 | 0.00 | 0.00 | 57 | 1014.5 |
| 20260906012504 | 25 | 83 | 4.8 | 14.5 | 0.00 | 0.00 | 0.00 | 57 | 1014.6 |
| 20260906012402 | 25 | 83 | 4.8 | 14.5 | 0.00 | 0.00 | 0.00 | 57 | 1014.6 |
| 20260906012306 | 25 | 91 | 4.8 | 14.5 | 0.00 | 0.00 | 0.00 | 57 | 1014.5 |
| 20260906012203 | 25 | 76 | 4.8 | 14.5 | 0.00 | 0.00 | 0.00 | 57 | 1014.5 |
| 20260906012104 | 25 | 63 | 4.8 | 14.5 | 0.00 | 0.00 | 0.00 | 57 | 1014.6 |
| 20260906012003 | 25 | 89 | 4.8 | 14.5 | 0.00 | 0.00 | 0.00 | 57 | 1014.6 |
| 20260906011902 | 25 | 83 | 4.8 | 14.5 | 0.00 | 0.00 | 0.00 | 57 | 1014.6 |
| 20260906011803 | 25 | 63 | 4.8 | 14.5 | 0.00 | 0.00 | 0.00 | 57 | 1014.5 |
| 20260906011701 | 25 | 75 | 4.8 | 14.5 | 0.00 | 0.00 | 0.00 | 57 | 1014.5 |
| 20260906011602 | 25 | 82 | 4.8 | 14.5 | 0.00 | 0.00 | 0.00 | 57 | 1014.5 |
| 20260906011504 | 25 | 126 | 6.4 | 14.5 | 0.00 | 0.00 | 0.00 | 57 | 1014.4 |
| 20260906011401 | 25 | 125 | 6.4 | 14.5 | 0.00 | 0.00 | 0.00 | 57 | 1014.5 |
| 20260906011257 | 25 | 83 | 4.8 | 14.5 | 0.00 | 0.00 | 0.00 | 57 | 1014.5 |
| 20260906011157 | 25 | 69 | 4.8 | 12.9 | 0.00 | 0.00 | 0.00 | 57 | 1014.5 |
| 20260906011055 | 25 | 66 | 4.8 | 12.9 | 0.00 | 0.00 | 0.00 | 57 | 1014.5 |
| 20260906010951 | 25 | 72 | 4.8 | 12.9 | 0.00 | 0.00 | 0.00 | 57 | 1014.5 |
| 20260906010850 | 25 | 95 | 4.8 | 12.9 | 0.00 | 0.00 | 0.00 | 57 | 1014.5 |
| 20260906010750 | 25 | 83 | 4.8 | 12.9 | 0.00 | 0.00 | 0.00 | 57 | 1014.5 |
| 20260906010643 | 25 | 79 | 4.8 | 11.3 | 0.00 | 0.00 | 0.00 | 57 | 1014.5 |
| 20260906010543 | 25 | 86 | 4.8 | 11.3 | 0.00 | 0.00 | 0.00 | 57 | 1014.5 |
| 20260906010445 | 25 | 89 | 4.8 | 11.3 | 0.00 | 0.00 | 0.00 | 57 | 1014.5 |
| 20260906010343 | 25 | 90 | 4.8 | 11.3 | 0.00 | 0.00 | 0.00 | 57 | 1014.5 |
| 20260906010243 | 25 | 91 | 3.2 | 11.3 | 0.00 | 0.00 | 0.00 | 57 | 1014.5 |
| 20260906010135 | 25 | 81 | 3.2 | 11.3 | 0.00 | 0.00 | 0.00 | 57 | 1014.5 |
| 20260906010035 | 25 | 67 | 3.2 | 11.3 | 0.00 | 0.00 | 0.00 | 57 | 1014.5 |
| 20260906005938 | 25 | 74 | 3.2 | 11.3 | 0.00 | 0.00 | 0.00 | 57 | 1014.5 |
| 20260906005835 | 25 | 77 | 3.2 | 11.3 | 0.00 | 0.00 | 0.00 | 57 | 1014.5 |
| 20260906005734 | 25 | 60 | 3.2 | 11.3 | 0.00 | 0.00 | 0.00 | 57 | 1014.5 |
| 20260906005637 | 25 | 60 | 3.2 | 11.3 | 0.00 | 0.00 | 0.00 | 57 | 1014.5 |
| 20260906005533 | 25 | 68 | 3.2 | 11.3 | 0.00 | 0.00 | 0.00 | 57 | 1014.6 |
| 20260906005431 | 25 | 76 | 3.2 | 11.3 | 0.00 | 0.00 | 0.00 | 57 | 1014.5 |
| 20260906005333 | 25 | 69 | 3.2 | 11.3 | 0.00 | 0.00 | 0.00 | 57 | 1014.6 |
| 20260906005231 | 25 | 72 | 4.8 | 11.3 | 0.00 | 0.00 | 0.00 | 57 | 1014.6 |
| 20260906005133 | 25 | 85 | 4.8 | 11.3 | 0.00 | 0.00 | 0.00 | 57 | 1014.5 |
| 20260906005031 | 25 | 87 | 4.8 | 11.3 | 0.00 | 0.00 | 0.00 | 57 | 1014.5 |
| 20260906004934 | 25 | 74 | 4.8 | 12.9 | 0.00 | 0.00 | 0.00 | 57 | 1014.6 |
| 20260906004832 | 25 | 66 | 4.8 | 14.5 | 0.00 | 0.00 | 0.00 | 57 | 1014.6 |
| 20260906004731 | 25 | 66 | 4.8 | 14.5 | 0.00 | 0.00 | 0.00 | 56 | 1014.5 |
| 20260906004634 | 25 | 74 | 4.8 | 14.5 | 0.00 | 0.00 | 0.00 | 57 | 1014.5 |
| 20260906004532 | 25 | 70 | 4.8 | 14.5 | 0.00 | 0.00 | 0.00 | 57 | 1014.5 |
| 20260906004432 | 25 | 95 | 6.4 | 14.5 | 0.00 | 0.00 | 0.00 | 57 | 1014.5 |
| 20260906004331 | 25 | 93 | 6.4 | 14.5 | 0.00 | 0.00 | 0.00 | 57 | 1014.5 |
| 20260906004231 | 25 | 65 | 4.8 | 14.5 | 0.00 | 0.00 | 0.00 | 57 | 1014.5 |
| 20260906004132 | 25 | 69 | 4.8 | 14.5 | 0.00 | 0.00 | 0.00 | 57 | 1014.6 |
| 20260906004033 | 25 | 66 | 4.8 | 14.5 | 0.00 | 0.00 | 0.00 | 57 | 1014.5 |
| 20260906003930 | 25 | 68 | 4.8 | 14.5 | 0.00 | 0.00 | 0.00 | 57 | 1014.5 |
| 20260906003831 | 25 | 61 | 4.8 | 12.9 | 0.00 | 0.00 | 0.00 | 57 | 1014.5 |
| 20260906003731 | 25 | 54 | 4.8 | 12.9 | 0.00 | 0.00 | 0.00 | 57 | 1014.4 |
| 20260906003634 | 25 | 78 | 3.2 | 12.9 | 0.00 | 0.00 | 0.00 | 57 | 1014.5 |
| 20260906003530 | 25 | 79 | 3.2 | 12.9 | 0.00 | 0.00 | 0.00 | 57 | 1014.4 |
| 20260906003433 | 25 | 79 | 3.2 | 11.3 | 0.00 | 0.00 | 0.00 | 57 | 1014.4 |
| 20260906003331 | 25 | 70 | 1.6 | 11.3 | 0.00 | 0.00 | 0.00 | 57 | 1014.5 |
| 20260906003230 | 25 | 65 | 1.6 | 11.3 | 0.00 | 0.00 | 0.00 | 57 | 1014.4 |
| 20260906003130 | 25 | 82 | 1.6 | 11.3 | 0.00 | 0.00 | 0.00 | 57 | 1014.4 |
| 20260906003033 | 25 | 89 | 1.6 | 8.0 | 0.00 | 0.00 | 0.00 | 57 | 1014.5 |
| 20260906002933 | 25 | 67 | 1.6 | 6.4 | 0.00 | 0.00 | 0.00 | 57 | 1014.5 |
| 20260906002832 | 25 | 67 | 1.6 | 6.4 | 0.00 | 0.00 | 0.00 | 57 | 1014.5 |
| 20260906002732 | 25 | 66 | 1.6 | 6.4 | 0.00 | 0.00 | 0.00 | 57 | 1014.6 |
| 20260906002633 | 25 | 93 | 1.6 | 6.4 | 0.00 | 0.00 | 0.00 | 57 | 1014.6 |
| 20260906002531 | 25 | 93 | 1.6 | 6.4 | 0.00 | 0.00 | 0.00 | 57 | 1014.5 |
| 20260906002431 | 25 | 97 | 1.6 | 6.4 | 0.00 | 0.00 | 0.00 | 57 | 1014.6 |
| 20260906002332 | 25 | 97 | 1.6 | 6.4 | 0.00 | 0.00 | 0.00 | 57 | 1014.5 |
| 20260906002232 | 25 | 97 | 1.6 | 6.4 | 0.00 | 0.00 | 0.00 | 57 | 1014.6 |
| 20260906002132 | 25 | 139 | 1.6 | 9.7 | 0.00 | 0.00 | 0.00 | 57 | 1014.5 |
| 20260906002033 | 25 | 117 | 3.2 | 9.7 | 0.00 | 0.00 | 0.00 | 57 | 1014.5 |
| 20260906001932 | 25 | 103 | 3.2 | 12.9 | 0.00 | 0.00 | 0.00 | 57 | 1014.5 |
| 20260906001831 | 25 | 287 | 3.2 | 12.9 | 0.00 | 0.00 | 0.00 | 57 | 1014.5 |
| 20260906001731 | 25 | 287 | 3.2 | 12.9 | 0.00 | 0.00 | 0.00 | 57 | 1014.5 |
| 20260906001634 | 25 | 89 | 4.8 | 12.9 | 0.00 | 0.00 | 0.00 | 57 | 1014.5 |
| 20260906001530 | 25 | 86 | 4.8 | 12.9 | 0.00 | 0.00 | 0.00 | 57 | 1014.5 |
| 20260906001430 | 25 | 85 | 4.8 | 12.9 | 0.00 | 0.00 | 0.00 | 57 | 1014.6 |
| 20260906001331 | 25 | 97 | 4.8 | 12.9 | 0.00 | 0.00 | 0.00 | 57 | 1014.5 |
| 20260906001234 | 25 | 118 | 4.8 | 12.9 | 0.00 | 0.00 | 0.00 | 57 | 1014.6 |
| 20260906001133 | 25 | 87 | 4.8 | 12.9 | 0.00 | 0.00 | 0.00 | 57 | 1014.6 |
| 20260906001032 | 25 | 86 | 4.8 | 12.9 | 0.00 | 0.00 | 0.00 | 57 | 1014.6 |
| 20260906000931 | 25 | 71 | 4.8 | 12.9 | 0.00 | 0.00 | 0.00 | 57 | 1014.5 |
| 20260906000831 | 25 | 83 | 4.8 | 12.9 | 0.00 | 0.00 | 0.00 | 57 | 1014.5 |
| 20260906000732 | 25 | 76 | 3.2 | 12.9 | 0.00 | 0.00 | 0.00 | 57 | 1014.5 |
| 20260906000635 | 25 | 76 | 3.2 | 12.9 | 0.00 | 0.00 | 0.00 | 57 | 1014.6 |
| 20260906000531 | 25 | 22 | 3.2 | 11.3 | 0.00 | 0.00 | 0.00 | 57 | 1014.6 |
| 20260906000433 | 25 | 85 | 3.2 | 11.3 | 0.00 | 0.00 | 0.00 | 57 | 1014.6 |
| 20260906000333 | 25 | 81 | 3.2 | 11.3 | 0.00 | 0.00 | 0.00 | 57 | 1014.6 |
| 20260906000231 | 25 | 100 | 3.2 | 11.3 | 0.00 | 0.00 | 0.00 | 57 | 1014.7 |
| 20260906000131 | 25 | 70 | 3.2 | 11.3 | 0.00 | 0.00 | 0.00 | 57 | 1014.6 |
| 20260906000030 | 25 | 117 | 3.2 | 11.3 | 0.00 | 0.00 | 0.00 | 57 | 1014.7 |
| 20260905235932 | 25 | 77 | 3.2 | 11.3 | 0.00 | 0.00 | 0.00 | 57 | 1014.7 |
| 20260905235832 | 25 | 82 | 3.2 | 11.3 | 0.00 | 0.00 | 0.00 | 57 | 1014.7 |
| 20260905235731 | 25 | 81 | 3.2 | 6.4 | 0.00 | 0.00 | 0.00 | 57 | 1014.7 |
| 20260905235634 | 25 | 76 | 3.2 | 8.0 | 0.00 | 0.00 | 0.00 | 58 | 1014.8 |
| 20260905235530 | 25 | 76 | 3.2 | 8.0 | 0.00 | 0.00 | 0.00 | 58 | 1014.7 |
| 20260905235429 | 25 | 71 | 3.2 | 8.0 | 0.00 | 0.00 | 0.00 | 58 | 1014.7 |
| 20260905235329 | 25 | 68 | 3.2 | 8.0 | 0.00 | 0.00 | 0.00 | 58 | 1014.8 |
| 20260905235232 | 25 | 58 | 4.8 | 8.0 | 0.00 | 0.00 | 0.00 | 58 | 1014.7 |
| 20260905235130 | 25 | 54 | 4.8 | 8.0 | 0.00 | 0.00 | 0.00 | 58 | 1014.7 |
| 20260905235029 | 25 | 55 | 4.8 | 8.0 | 0.00 | 0.00 | 0.00 | 58 | 1014.8 |
| 20260905234930 | 25 | 81 | 3.2 | 8.0 | 0.00 | 0.00 | 0.00 | 58 | 1014.8 |
| 20260905234825 | 25 | 73 | 3.2 | 8.0 | 0.00 | 0.00 | 0.00 | 58 | 1014.7 |
| 20260905234726 | 25 | 71 | 3.2 | 8.0 | 0.00 | 0.00 | 0.00 | 58 | 1014.7 |
| 20260905234625 | 25 | 71 | 3.2 | 8.0 | 0.00 | 0.00 | 0.00 | 58 | 1014.8 |
| 20260905234526 | 25 | 61 | 3.2 | 8.0 | 0.00 | 0.00 | 0.00 | 58 | 1014.7 |
| 20260905234424 | 25 | 74 | 3.2 | 8.0 | 0.00 | 0.00 | 0.00 | 58 | 1014.7 |
| 20260905234321 | 25 | 79 | 3.2 | 8.0 | 0.00 | 0.00 | 0.00 | 58 | 1014.7 |
| 20260905234224 | 25 | 83 | 3.2 | 8.0 | 0.00 | 0.00 | 0.00 | 58 | 1014.8 |
| 20260905234122 | 25 | 77 | 3.2 | 8.0 | 0.00 | 0.00 | 0.00 | 58 | 1014.8 |
| 20260905234018 | 25 | 68 | 3.2 | 17.7 | 0.00 | 0.00 | 0.00 | 58 | 1014.8 |
| 20260905233918 | 25 | 52 | 4.8 | 17.7 | 0.00 | 0.00 | 0.00 | 58 | 1014.7 |
| 20260905233811 | 25 | 76 | 4.8 | 17.7 | 0.00 | 0.00 | 0.00 | 58 | 1014.8 |
| 20260905233712 | 25 | 76 | 4.8 | 17.7 | 0.00 | 0.00 | 0.00 | 58 | 1014.8 |
| 20260905233612 | 25 | 76 | 4.8 | 17.7 | 0.00 | 0.00 | 0.00 | 59 | 1014.7 |
| 20260905233510 | 25 | 77 | 4.8 | 17.7 | 0.00 | 0.00 | 0.00 | 59 | 1014.7 |
| 20260905233412 | 25 | 74 | 4.8 | 17.7 | 0.00 | 0.00 | 0.00 | 59 | 1014.6 |
| 20260905233305 | 25 | 77 | 4.8 | 17.7 | 0.00 | 0.00 | 0.00 | 59 | 1014.7 |
| 20260905233205 | 25 | 82 | 4.8 | 17.7 | 0.00 | 0.00 | 0.00 | 59 | 1014.7 |
| 20260905233104 | 25 | 79 | 4.8 | 17.7 | 0.00 | 0.00 | 0.00 | 59 | 1014.7 |
| 20260905233004 | 25 | 85 | 3.2 | 11.3 | 0.00 | 0.00 | 0.00 | 59 | 1014.6 |
| 20260905232904 | 25 | 90 | 3.2 | 9.7 | 0.00 | 0.00 | 0.00 | 59 | 1014.8 |
| 20260905232803 | 25 | 68 | 3.2 | 9.7 | 0.00 | 0.00 | 0.00 | 59 | 1014.8 |
| 20260905232704 | 25 | 64 | 3.2 | 9.7 | 0.00 | 0.00 | 0.00 | 59 | 1014.8 |
| 20260905232604 | 25 | 65 | 3.2 | 9.7 | 0.00 | 0.00 | 0.00 | 59 | 1014.8 |
| 20260905232503 | 25 | 81 | 3.2 | 9.7 | 0.00 | 0.00 | 0.00 | 59 | 1014.8 |
| 20260905232402 | 25 | 82 | 3.2 | 9.7 | 0.00 | 0.00 | 0.00 | 59 | 1014.8 |
| 20260905232305 | 25 | 74 | 3.2 | 9.7 | 0.00 | 0.00 | 0.00 | 59 | 1014.8 |
| 20260905232202 | 25 | 73 | 1.6 | 9.7 | 0.00 | 0.00 | 0.00 | 59 | 1014.9 |
| 20260905232103 | 25 | 76 | 1.6 | 9.7 | 0.00 | 0.00 | 0.00 | 59 | 1014.8 |
| 20260905232003 | 25 | 87 | 1.6 | 9.7 | 0.00 | 0.00 | 0.00 | 59 | 1014.8 |
| 20260905231902 | 25 | 91 | 1.6 | 6.4 | 0.00 | 0.00 | 0.00 | 59 | 1014.8 |
| 20260905231806 | 25 | 68 | 1.6 | 6.4 | 0.00 | 0.00 | 0.00 | 59 | 1014.9 |
| 20260905231702 | 25 | 61 | 1.6 | 6.4 | 0.00 | 0.00 | 0.00 | 59 | 1014.8 |
| 20260905231603 | 25 | 77 | 1.6 | 6.4 | 0.00 | 0.00 | 0.00 | 59 | 1014.8 |
| 20260905231503 | 25 | 77 | 1.6 | 6.4 | 0.00 | 0.00 | 0.00 | 60 | 1014.8 |
| 20260905231403 | 25 | 77 | 1.6 | 6.4 | 0.00 | 0.00 | 0.00 | 60 | 1014.8 |
| 20260905231303 | 25 | 77 | 1.6 | 6.4 | 0.00 | 0.00 | 0.00 | 60 | 1014.8 |
| 20260905231204 | 25 | 77 | 1.6 | 6.4 | 0.00 | 0.00 | 0.00 | 60 | 1014.8 |
| 20260905231103 | 25 | 76 | 1.6 | 6.4 | 0.00 | 0.00 | 0.00 | 60 | 1014.8 |
| 20260905231003 | 25 | 76 | 1.6 | 6.4 | 0.00 | 0.00 | 0.00 | 60 | 1014.8 |
| 20260905230903 | 25 | 75 | 1.6 | 6.4 | 0.00 | 0.00 | 0.00 | 60 | 1014.7 |
| 20260905230804 | 25 | 93 | 1.6 | 6.4 | 0.00 | 0.00 | 0.00 | 60 | 1014.7 |
| 20260905230704 | 25 | 87 | 1.6 | 6.4 | 0.00 | 0.00 | 0.00 | 60 | 1014.8 |
| 20260905230603 | 25 | 88 | 1.6 | 6.4 | 0.00 | 0.00 | 0.00 | 60 | 1014.8 |
| 20260905230503 | 25 | 98 | 1.6 | 6.4 | 0.00 | 0.00 | 0.00 | 60 | 1014.8 |
| 20260905230403 | 25 | 97 | 1.6 | 6.4 | 0.00 | 0.00 | 0.00 | 60 | 1014.7 |
| 20260905230303 | 25 | 81 | 1.6 | 6.4 | 0.00 | 0.00 | 0.00 | 60 | 1014.9 |
| 20260905230203 | 25 | 81 | 1.6 | 8.0 | 0.00 | 0.00 | 0.00 | 60 | 1014.8 |
| 20260905230003 | 25 | 81 | 1.6 | 8.0 | 0.00 | 0.00 | 0.00 | 60 | 1014.8 |
| 20260905225902 | 25 | 74 | 1.6 | 8.0 | 0.00 | 0.00 | 0.00 | 60 | 1014.9 |
| 20260905225803 | 25 | 74 | 1.6 | 8.0 | 0.00 | 0.00 | 0.00 | 60 | 1014.9 |
| 20260905225706 | 25 | 74 | 1.6 | 8.0 | 0.00 | 0.00 | 0.00 | 60 | 1014.9 |
| 20260905225603 | 25 | 74 | 1.6 | 8.0 | 0.00 | 0.00 | 0.00 | 60 | 1014.9 |
| 20260905225503 | 25 | 74 | 3.2 | 8.0 | 0.00 | 0.00 | 0.00 | 60 | 1014.9 |
| 20260905225404 | 25 | 74 | 3.2 | 8.0 | 0.00 | 0.00 | 0.00 | 60 | 1014.9 |
| 20260905225305 | 25 | 76 | 3.2 | 8.0 | 0.00 | 0.00 | 0.00 | 60 | 1014.7 |
| 20260905225203 | 25 | 72 | 3.2 | 8.0 | 0.00 | 0.00 | 0.00 | 60 | 1014.8 |
| 20260905225102 | 25 | 71 | 3.2 | 8.0 | 0.00 | 0.00 | 0.00 | 60 | 1014.8 |
| 20260905225003 | 25 | 71 | 3.2 | 8.0 | 0.00 | 0.00 | 0.00 | 60 | 1014.8 |
| 20260905224904 | 25 | 64 | 3.2 | 6.4 | 0.00 | 0.00 | 0.00 | 60 | 1014.8 |
| 20260905224807 | 25 | 74 | 1.6 | 6.4 | 0.00 | 0.00 | 0.00 | 60 | 1014.9 |
| 20260905224702 | 25 | 76 | 1.6 | 6.4 | 0.00 | 0.00 | 0.00 | 60 | 1014.8 |
| 20260905224605 | 25 | 62 | 1.6 | 6.4 | 0.00 | 0.00 | 0.00 | 60 | 1014.8 |
| 20260905224502 | 25 | 62 | 1.6 | 6.4 | 0.00 | 0.00 | 0.00 | 60 | 1014.8 |
| 20260905224403 | 25 | 80 | 1.6 | 6.4 | 0.00 | 0.00 | 0.00 | 60 | 1014.9 |
| 20260905224303 | 25 | 72 | 1.6 | 6.4 | 0.00 | 0.00 | 0.00 | 60 | 1014.9 |
| 20260905224204 | 25 | 71 | 1.6 | 6.4 | 0.00 | 0.00 | 0.00 | 60 | 1014.9 |
| 20260905224102 | 25 | 71 | 1.6 | 6.4 | 0.00 | 0.00 | 0.00 | 60 | 1014.8 |
| 20260905224005 | 25 | 71 | 1.6 | 6.4 | 0.00 | 0.00 | 0.00 | 60 | 1014.9 |
| 20260905223904 | 25 | 75 | 1.6 | 6.4 | 0.00 | 0.00 | 0.00 | 60 | 1014.9 |
| 20260905223809 | 25 | 135 | 1.6 | 9.7 | 0.00 | 0.00 | 0.00 | 60 | 1014.9 |
| 20260905223703 | 25 | 135 | 3.2 | 9.7 | 0.00 | 0.00 | 0.00 | 60 | 1015.0 |
| 20260905223604 | 25 | 135 | 3.2 | 9.7 | 0.00 | 0.00 | 0.00 | 60 | 1015.0 |
| 20260905223503 | 25 | 134 | 3.2 | 9.7 | 0.00 | 0.00 | 0.00 | 60 | 1015.1 |
| 20260905223404 | 25 | 134 | 3.2 | 9.7 | 0.00 | 0.00 | 0.00 | 60 | 1014.9 |
| 20260905223306 | 25 | 79 | 3.2 | 9.7 | 0.00 | 0.00 | 0.00 | 60 | 1014.9 |
| 20260905223204 | 25 | 92 | 3.2 | 9.7 | 0.00 | 0.00 | 0.00 | 60 | 1015.0 |
| 20260905223102 | 25 | 92 | 3.2 | 9.7 | 0.00 | 0.00 | 0.00 | 61 | 1014.9 |
| 20260905223006 | 25 | 79 | 3.2 | 9.7 | 0.00 | 0.00 | 0.00 | 61 | 1014.9 |
| 20260905222905 | 25 | 97 | 3.2 | 9.7 | 0.00 | 0.00 | 0.00 | 61 | 1014.9 |
| 20260905222806 | 25 | 102 | 3.2 | 11.3 | 0.00 | 0.00 | 0.00 | 61 | 1015.0 |
| 20260905222703 | 25 | 101 | 3.2 | 11.3 | 0.00 | 0.00 | 0.00 | 61 | 1014.9 |
| 20260905222603 | 25 | 68 | 3.2 | 11.3 | 0.00 | 0.00 | 0.00 | 61 | 1015.0 |
| 20260905222502 | 25 | 66 | 3.2 | 11.3 | 0.00 | 0.00 | 0.00 | 61 | 1014.9 |
| 20260905222404 | 25 | 43 | 3.2 | 11.3 | 0.00 | 0.00 | 0.00 | 61 | 1015.0 |
| 20260905222306 | 25 | 43 | 3.2 | 11.3 | 0.00 | 0.00 | 0.00 | 61 | 1014.9 |
| 20260905222204 | 25 | 43 | 3.2 | 11.3 | 0.00 | 0.00 | 0.00 | 61 | 1014.9 |
| 20260905222103 | 25 | 43 | 3.2 | 11.3 | 0.00 | 0.00 | 0.00 | 61 | 1014.9 |
| 20260905222003 | 25 | 71 | 3.2 | 11.3 | 0.00 | 0.00 | 0.00 | 61 | 1014.9 |
| 20260905221903 | 25 | 78 | 3.2 | 11.3 | 0.00 | 0.00 | 0.00 | 61 | 1015.0 |
| 20260905221803 | 25 | 82 | 3.2 | 9.7 | 0.00 | 0.00 | 0.00 | 61 | 1015.0 |
| 20260905221702 | 25 | 77 | 3.2 | 9.7 | 0.00 | 0.00 | 0.00 | 61 | 1015.0 |
| 20260905221603 | 25 | 99 | 3.2 | 9.7 | 0.00 | 0.00 | 0.00 | 61 | 1014.9 |
| 20260905221502 | 25 | 80 | 3.2 | 9.7 | 0.00 | 0.00 | 0.00 | 61 | 1014.9 |
| 20260905221403 | 25 | 80 | 3.2 | 9.7 | 0.00 | 0.00 | 0.00 | 61 | 1014.9 |
| 20260905221307 | 25 | 82 | 3.2 | 9.7 | 0.00 | 0.00 | 0.00 | 62 | 1015.0 |
| 20260905221204 | 25 | 78 | 3.2 | 9.7 | 0.00 | 0.00 | 0.00 | 62 | 1015.0 |
| 20260905221106 | 25 | 86 | 3.2 | 9.7 | 0.00 | 0.00 | 0.00 | 62 | 1014.9 |
| 20260905221002 | 25 | 84 | 3.2 | 9.7 | 0.00 | 0.00 | 0.00 | 62 | 1015.1 |
| 20260905220902 | 25 | 81 | 3.2 | 6.4 | 0.00 | 0.00 | 0.00 | 62 | 1015.1 |
| 20260905220803 | 25 | 309 | 1.6 | 6.4 | 0.00 | 0.00 | 0.00 | 62 | 1015.1 |
| 20260905220702 | 25 | 83 | 1.6 | 6.4 | 0.00 | 0.00 | 0.00 | 62 | 1015.1 |
| 20260905220604 | 25 | 97 | 1.6 | 6.4 | 0.00 | 0.00 | 0.00 | 62 | 1015.0 |
| 20260905220504 | 25 | 101 | 1.6 | 6.4 | 0.00 | 0.00 | 0.00 | 62 | 1015.1 |
| 20260905220404 | 25 | 72 | 1.6 | 6.4 | 0.00 | 0.00 | 0.00 | 62 | 1015.1 |
| 20260905220303 | 25 | 72 | 1.6 | 6.4 | 0.00 | 0.00 | 0.00 | 62 | 1015.1 |
| 20260905220204 | 25 | 110 | 1.6 | 6.4 | 0.00 | 0.00 | 0.00 | 62 | 1015.1 |
| 20260905220003 | 25 | 37 | 1.6 | 4.8 | 0.00 | 0.00 | 0.00 | 62 | 1015.1 |
| 20260905215904 | 25 | 37 | 1.6 | 4.8 | 0.00 | 0.00 | 0.00 | 62 | 1015.1 |
| 20260905215803 | 25 | 37 | 1.6 | 4.8 | 0.00 | 0.00 | 0.00 | 62 | 1015.1 |
| 20260905215704 | 25 | 37 | 1.6 | 4.8 | 0.00 | 0.00 | 0.00 | 62 | 1015.1 |
| 20260905215602 | 25 | 22 | 1.6 | 6.4 | 0.00 | 0.00 | 0.00 | 62 | 1015.1 |
| 20260905215505 | 25 | 0 | 3.2 | 6.4 | 0.00 | 0.00 | 0.00 | 62 | 1015.1 |
| 20260905215404 | 25 | 0 | 3.2 | 12.9 | 0.00 | 0.00 | 0.00 | 62 | 1015.1 |
| 20260905215306 | 25 | 5 | 3.2 | 12.9 | 0.00 | 0.00 | 0.00 | 61 | 1015.1 |
| 20260905215203 | 25 | 46 | 3.2 | 16.1 | 0.00 | 0.00 | 0.00 | 62 | 1015.1 |
| 20260905215103 | 25 | 318 | 3.2 | 16.1 | 0.00 | 0.00 | 0.00 | 62 | 1015.1 |
| 20260905215004 | 25 | 312 | 4.8 | 16.1 | 0.00 | 0.00 | 0.00 | 62 | 1015.1 |
| 20260905214902 | 25 | 312 | 4.8 | 16.1 | 0.00 | 0.00 | 0.00 | 62 | 1015.1 |
| 20260905214803 | 25 | 312 | 4.8 | 16.1 | 0.00 | 0.00 | 0.00 | 62 | 1015.2 |
| 20260905214704 | 25 | 311 | 4.8 | 16.1 | 0.00 | 0.00 | 0.00 | 62 | 1015.2 |
| 20260905214605 | 25 | 303 | 4.8 | 16.1 | 0.00 | 0.00 | 0.00 | 62 | 1015.2 |
| 20260905214504 | 25 | 289 | 4.8 | 16.1 | 0.00 | 0.00 | 0.00 | 62 | 1015.3 |
| 20260905214404 | 25 | 306 | 3.2 | 16.1 | 0.00 | 0.00 | 0.00 | 62 | 1015.3 |
| 20260905214304 | 25 | 81 | 3.2 | 16.1 | 0.00 | 0.00 | 0.00 | 62 | 1015.3 |
| 20260905214204 | 25 | 311 | 3.2 | 11.3 | 0.00 | 0.00 | 0.00 | 61 | 1015.2 |
| 20260905214102 | 25 | 54 | 3.2 | 8.0 | 0.00 | 0.00 | 0.00 | 61 | 1015.2 |
| 20260905214003 | 25 | 81 | 3.2 | 6.4 | 0.00 | 0.00 | 0.00 | 61 | 1015.2 |
| 20260905213902 | 25 | 73 | 3.2 | 8.0 | 0.00 | 0.00 | 0.00 | 61 | 1015.2 |
| 20260905213804 | 25 | 73 | 3.2 | 8.0 | 0.00 | 0.00 | 0.00 | 61 | 1015.2 |
| 20260905213704 | 25 | 112 | 3.2 | 9.7 | 0.00 | 0.00 | 0.00 | 61 | 1015.2 |
| 20260905213605 | 25 | 140 | 3.2 | 9.7 | 0.00 | 0.00 | 0.00 | 61 | 1015.2 |
| 20260905213502 | 25 | 311 | 3.2 | 9.7 | 0.00 | 0.00 | 0.00 | 61 | 1015.3 |
| 20260905213404 | 25 | 216 | 3.2 | 9.7 | 0.00 | 0.00 | 0.00 | 61 | 1015.2 |
| 20260905213302 | 25 | 218 | 3.2 | 9.7 | 0.00 | 0.00 | 0.00 | 61 | 1015.3 |
| 20260905213204 | 25 | 292 | 3.2 | 9.7 | 0.00 | 0.00 | 0.00 | 61 | 1015.3 |
| 20260905213103 | 25 | 292 | 4.8 | 9.7 | 0.00 | 0.00 | 0.00 | 61 | 1015.3 |
| 20260905213004 | 25 | 289 | 4.8 | 9.7 | 0.00 | 0.00 | 0.00 | 61 | 1015.3 |
| 20260905212901 | 25 | 321 | 4.8 | 9.7 | 0.00 | 0.00 | 0.00 | 61 | 1015.3 |
| 20260905212801 | 25 | 324 | 3.2 | 9.7 | 0.00 | 0.00 | 0.00 | 61 | 1015.3 |
| 20260905212702 | 25 | 318 | 3.2 | 9.7 | 0.00 | 0.00 | 0.00 | 61 | 1015.4 |
| 20260905212601 | 25 | 287 | 3.2 | 9.7 | 0.00 | 0.00 | 0.00 | 61 | 1015.4 |
| 20260905212457 | 25 | 218 | 3.2 | 9.7 | 0.00 | 0.00 | 0.00 | 61 | 1015.3 |
| 20260905212352 | 25 | 336 | 4.8 | 16.1 | 0.00 | 0.00 | 0.00 | 61 | 1015.3 |
| 20260905212251 | 25 | 294 | 4.8 | 16.1 | 0.00 | 0.00 | 0.00 | 61 | 1015.2 |
| 20260905212152 | 25 | 351 | 4.8 | 16.1 | 0.00 | 0.00 | 0.00 | 61 | 1015.2 |
| 20260905212051 | 25 | 348 | 4.8 | 16.1 | 0.00 | 0.00 | 0.00 | 61 | 1015.2 |
| 20260905211951 | 25 | 311 | 4.8 | 16.1 | 0.00 | 0.00 | 0.00 | 62 | 1015.2 |
| 20260905211852 | 25 | 259 | 4.8 | 16.1 | 0.00 | 0.00 | 0.00 | 62 | 1015.2 |
| 20260905211749 | 25 | 34 | 4.8 | 16.1 | 0.00 | 0.00 | 0.00 | 61 | 1015.2 |
| 20260905211649 | 25 | 34 | 6.4 | 17.7 | 0.00 | 0.00 | 0.00 | 61 | 1015.2 |
| 20260905211548 | 25 | 34 | 6.4 | 17.7 | 0.00 | 0.00 | 0.00 | 61 | 1015.3 |
| 20260905211446 | 25 | 22 | 4.8 | 17.7 | 0.00 | 0.00 | 0.00 | 61 | 1015.4 |
| 20260905211339 | 25 | 5 | 4.8 | 17.7 | 0.00 | 0.00 | 0.00 | 62 | 1015.3 |
| 20260905211238 | 25 | 28 | 4.8 | 17.7 | 0.00 | 0.00 | 0.00 | 62 | 1015.4 |
| 20260905211139 | 25 | 276 | 4.8 | 17.7 | 0.00 | 0.00 | 0.00 | 62 | 1015.3 |
| 20260905211039 | 25 | 276 | 4.8 | 17.7 | 0.00 | 0.00 | 0.00 | 62 | 1015.3 |
| 20260905210939 | 25 | 356 | 4.8 | 17.7 | 0.00 | 0.00 | 0.00 | 62 | 1015.3 |
| 20260905210835 | 25 | 297 | 4.8 | 17.7 | 0.00 | 0.00 | 0.00 | 62 | 1015.3 |
| 20260905210735 | 25 | 309 | 4.8 | 17.7 | 0.00 | 0.00 | 0.00 | 62 | 1015.2 |
| 20260905210636 | 25 | 234 | 4.8 | 9.7 | 0.00 | 0.00 | 0.00 | 62 | 1015.1 |
| 20260905210536 | 25 | 255 | 4.8 | 9.7 | 0.00 | 0.00 | 0.00 | 62 | 1015.2 |
| 20260905210435 | 25 | 79 | 4.8 | 9.7 | 0.00 | 0.00 | 0.00 | 62 | 1015.2 |
| 20260905210334 | 25 | 169 | 4.8 | 9.7 | 0.00 | 0.00 | 0.00 | 62 | 1015.1 |
| 20260905210235 | 25 | 184 | 4.8 | 9.7 | 0.00 | 0.00 | 0.00 | 62 | 1015.1 |
| 20260905210138 | 25 | 246 | 4.8 | 16.1 | 0.00 | 0.00 | 0.00 | 62 | 1015.1 |
| 20260905210034 | 25 | 227 | 4.8 | 16.1 | 0.00 | 0.00 | 0.00 | 62 | 1015.1 |
| 20260905205933 | 25 | 220 | 3.2 | 16.1 | 0.00 | 0.00 | 0.00 | 62 | 1015.1 |
| 20260905205833 | 25 | 185 | 3.2 | 16.1 | 0.00 | 0.00 | 0.00 | 62 | 1015.1 |
| 20260905205733 | 25 | 205 | 3.2 | 16.1 | 0.00 | 0.00 | 0.00 | 62 | 1015.1 |
| 20260905205635 | 25 | 212 | 3.2 | 16.1 | 0.00 | 0.00 | 0.00 | 62 | 1015.1 |
| 20260905205533 | 25 | 355 | 3.2 | 16.1 | 0.00 | 0.00 | 0.00 | 62 | 1015.1 |
| 20260905205433 | 25 | 77 | 3.2 | 16.1 | 0.00 | 0.00 | 0.00 | 62 | 1015.1 |
| 20260905205336 | 25 | 73 | 3.2 | 16.1 | 0.00 | 0.00 | 0.00 | 62 | 1015.1 |
| 20260905205233 | 25 | 309 | 3.2 | 16.1 | 0.00 | 0.00 | 0.00 | 62 | 1015.2 |
| 20260905205133 | 25 | 280 | 3.2 | 12.9 | 0.00 | 0.00 | 0.00 | 62 | 1015.2 |
| 20260905205034 | 25 | 146 | 3.2 | 12.9 | 0.00 | 0.00 | 0.00 | 63 | 1015.2 |
| 20260905204933 | 25 | 298 | 3.2 | 12.9 | 0.00 | 0.00 | 0.00 | 63 | 1015.1 |
| 20260905204834 | 25 | 114 | 3.2 | 12.9 | 0.00 | 0.00 | 0.00 | 63 | 1015.1 |
| 20260905204734 | 25 | 133 | 3.2 | 12.9 | 0.00 | 0.00 | 0.00 | 63 | 1015.2 |
| 20260905204634 | 25 | 131 | 3.2 | 12.9 | 0.00 | 0.00 | 0.00 | 63 | 1015.2 |
| 20260905204533 | 25 | 123 | 3.2 | 12.9 | 0.00 | 0.00 | 0.00 | 63 | 1015.3 |
| 20260905204431 | 25 | 336 | 3.2 | 12.9 | 0.00 | 0.00 | 0.00 | 63 | 1015.2 |
| 20260905204335 | 25 | 335 | 4.8 | 12.9 | 0.00 | 0.00 | 0.00 | 63 | 1015.2 |
| 20260905204232 | 25 | 278 | 4.8 | 12.9 | 0.00 | 0.00 | 0.00 | 63 | 1015.1 |
| 20260905204133 | 25 | 215 | 4.8 | 12.9 | 0.00 | 0.00 | 0.00 | 63 | 1015.1 |
| 20260905204031 | 25 | 72 | 4.8 | 12.9 | 0.00 | 0.00 | 0.00 | 63 | 1015.1 |
| 20260905203932 | 25 | 60 | 4.8 | 12.9 | 0.00 | 0.00 | 0.00 | 63 | 1015.1 |
| 20260905203831 | 25 | 83 | 4.8 | 12.9 | 0.00 | 0.00 | 0.00 | 63 | 1015.1 |
| 20260905203733 | 25 | 22 | 4.8 | 11.3 | 0.00 | 0.00 | 0.00 | 63 | 1015.1 |
| 20260905203636 | 25 | 41 | 4.8 | 11.3 | 0.00 | 0.00 | 0.00 | 63 | 1015.1 |
| 20260905203532 | 25 | 86 | 4.8 | 11.3 | 0.00 | 0.00 | 0.00 | 63 | 1015.1 |
| 20260905203430 | 25 | 189 | 4.8 | 9.7 | 0.00 | 0.00 | 0.00 | 63 | 1015.1 |
| 20260905203332 | 25 | 245 | 4.8 | 9.7 | 0.00 | 0.00 | 0.00 | 63 | 1015.2 |
| 20260905203231 | 25 | 307 | 3.2 | 9.7 | 0.00 | 0.00 | 0.00 | 63 | 1015.2 |
| 20260905203133 | 25 | 321 | 3.2 | 9.7 | 0.00 | 0.00 | 0.00 | 63 | 1015.2 |
| 20260905203030 | 25 | 320 | 3.2 | 9.7 | 0.00 | 0.00 | 0.00 | 63 | 1015.3 |
| 20260905202932 | 25 | 20 | 3.2 | 9.7 | 0.00 | 0.00 | 0.00 | 63 | 1015.3 |
| 20260905202832 | 25 | 301 | 3.2 | 9.7 | 0.00 | 0.00 | 0.00 | 63 | 1015.3 |
| 20260905202732 | 25 | 188 | 3.2 | 9.7 | 0.00 | 0.00 | 0.00 | 63 | 1015.3 |
| 20260905202636 | 25 | 123 | 3.2 | 9.7 | 0.00 | 0.00 | 0.00 | 63 | 1015.2 |
| 20260905202532 | 25 | 133 | 3.2 | 8.0 | 0.00 | 0.00 | 0.00 | 63 | 1015.3 |
| 20260905202432 | 25 | 93 | 3.2 | 11.3 | 0.00 | 0.00 | 0.00 | 62 | 1015.3 |
| 20260905202331 | 25 | 220 | 3.2 | 11.3 | 0.00 | 0.00 | 0.00 | 62 | 1015.3 |
| 20260905202232 | 25 | 220 | 3.2 | 11.3 | 0.00 | 0.00 | 0.00 | 62 | 1015.3 |
| 20260905202132 | 25 | 268 | 3.2 | 11.3 | 0.00 | 0.00 | 0.00 | 62 | 1015.4 |
| 20260905202031 | 25 | 268 | 3.2 | 11.3 | 0.00 | 0.00 | 0.00 | 62 | 1015.3 |
| 20260905201930 | 25 | 268 | 3.2 | 11.3 | 0.00 | 0.00 | 0.00 | 62 | 1015.3 |
| 20260905201827 | 25 | 260 | 3.2 | 11.3 | 0.00 | 0.00 | 0.00 | 62 | 1015.3 |
| 20260905201730 | 25 | 54 | 3.2 | 11.3 | 0.00 | 0.00 | 0.00 | 62 | 1015.3 |
| 20260905201624 | 25 | 70 | 3.2 | 11.3 | 0.00 | 0.00 | 0.00 | 62 | 1015.3 |
| 20260905201522 | 25 | 86 | 3.2 | 11.3 | 0.00 | 0.00 | 0.00 | 61 | 1015.4 |
| 20260905201419 | 25 | 189 | 3.2 | 9.7 | 0.00 | 0.00 | 0.00 | 61 | 1015.4 |
| 20260905201319 | 25 | 189 | 3.2 | 9.7 | 0.00 | 0.00 | 0.00 | 61 | 1015.4 |
| 20260905201215 | 25 | 141 | 3.2 | 9.7 | 0.00 | 0.00 | 0.00 | 61 | 1015.4 |
| 20260905201116 | 25 | 137 | 3.2 | 9.7 | 0.00 | 0.00 | 0.00 | 61 | 1015.3 |
| 20260905201014 | 25 | 284 | 4.8 | 9.7 | 0.00 | 0.00 | 0.00 | 61 | 1015.3 |
| 20260905200913 | 25 | 282 | 4.8 | 9.7 | 0.00 | 0.00 | 0.00 | 61 | 1015.3 |
| 20260905200811 | 25 | 276 | 4.8 | 9.7 | 0.00 | 0.00 | 0.00 | 61 | 1015.3 |
| 20260905200708 | 25 | 334 | 3.2 | 9.7 | 0.00 | 0.00 | 0.00 | 61 | 1015.3 |
| 20260905200610 | 25 | 295 | 3.2 | 9.7 | 0.00 | 0.00 | 0.00 | 61 | 1015.3 |
| 20260905200508 | 25 | 14 | 3.2 | 9.7 | 0.00 | 0.00 | 0.00 | 60 | 1015.3 |
| 20260905200408 | 25 | 305 | 3.2 | 9.7 | 0.00 | 0.00 | 0.00 | 61 | 1015.3 |
| 20260905200307 | 25 | 328 | 3.2 | 11.3 | 0.00 | 0.00 | 0.00 | 61 | 1015.3 |
| 20260905200203 | 25 | 264 | 3.2 | 11.3 | 0.00 | 0.00 | 0.00 | 61 | 1015.2 |
| 20260905200004 | 25 | 266 | 4.8 | 11.3 | 0.00 | 0.00 | 0.00 | 61 | 1015.2 |
| 20260905195905 | 25 | 148 | 4.8 | 11.3 | 0.00 | 0.00 | 0.00 | 62 | 1015.2 |
| 20260905195803 | 25 | 128 | 4.8 | 11.3 | 0.00 | 0.00 | 0.00 | 62 | 1015.2 |
| 20260905195704 | 25 | 171 | 4.8 | 11.3 | 0.00 | 0.00 | 0.00 | 62 | 1015.2 |
| 20260905195602 | 25 | 149 | 4.8 | 11.3 | 0.00 | 0.00 | 0.00 | 62 | 1015.2 |
| 20260905195505 | 25 | 164 | 4.8 | 11.3 | 0.00 | 0.00 | 0.00 | 62 | 1015.1 |
| 20260905195406 | 25 | 135 | 4.8 | 11.3 | 0.00 | 0.00 | 0.00 | 62 | 1015.1 |
| 20260905195306 | 25 | 155 | 4.8 | 11.3 | 0.00 | 0.00 | 0.00 | 62 | 1015.1 |
| 20260905195204 | 25 | 154 | 4.8 | 11.3 | 0.00 | 0.00 | 0.00 | 62 | 1015.1 |
| 20260905195104 | 25 | 201 | 4.8 | 11.3 | 0.00 | 0.00 | 0.00 | 62 | 1015.1 |
| 20260905195003 | 25 | 183 | 4.8 | 11.3 | 0.00 | 0.00 | 0.00 | 62 | 1015.1 |
| 20260905194904 | 25 | 192 | 3.2 | 9.7 | 0.00 | 0.00 | 0.00 | 62 | 1015.1 |
| 20260905194801 | 25 | 165 | 3.2 | 9.7 | 0.00 | 0.00 | 0.00 | 62 | 1015.0 |
| 20260905194700 | 25 | 149 | 3.2 | 9.7 | 0.00 | 0.00 | 0.00 | 62 | 1015.1 |
| 20260905194600 | 25 | 318 | 4.8 | 9.7 | 0.00 | 0.00 | 0.00 | 62 | 1015.0 |
| 20260905194501 | 25 | 62 | 3.2 | 11.3 | 0.00 | 0.00 | 0.00 | 62 | 1015.0 |
| 20260905194400 | 25 | 121 | 3.2 | 12.9 | 0.00 | 0.00 | 0.00 | 62 | 1015.0 |
| 20260905194253 | 25 | 166 | 3.2 | 12.9 | 0.00 | 0.00 | 0.00 | 62 | 1015.0 |
| 20260905194155 | 25 | 186 | 4.8 | 12.9 | 0.00 | 0.00 | 0.00 | 62 | 1015.1 |
| 20260905194054 | 25 | 229 | 4.8 | 12.9 | 0.00 | 0.00 | 0.00 | 62 | 1015.0 |
| 20260905193954 | 25 | 145 | 4.8 | 12.9 | 0.00 | 0.00 | 0.00 | 62 | 1015.0 |
| 20260905193854 | 25 | 198 | 4.8 | 12.9 | 0.00 | 0.00 | 0.00 | 62 | 1015.0 |
| 20260905193748 | 25 | 93 | 4.8 | 12.9 | 0.00 | 0.00 | 0.00 | 62 | 1015.0 |
| 20260905193703 | 25 | 124 | 4.8 | 16.1 | 0.00 | 0.00 | 0.00 | 62 | 1015.0 |
| 20260905193547 | 25 | 82 | 4.8 | 16.1 | 0.00 | 0.00 | 0.00 | 62 | 1015.0 |
| 20260905193449 | 25 | 37 | 6.4 | 16.1 | 0.00 | 0.00 | 0.00 | 62 | 1015.0 |
| 20260905193347 | 25 | 40 | 6.4 | 16.1 | 0.00 | 0.00 | 0.00 | 63 | 1015.0 |
| 20260905193241 | 25 | 94 | 6.4 | 16.1 | 0.00 | 0.00 | 0.00 | 63 | 1015.1 |
| 20260905193146 | 25 | 125 | 4.8 | 16.1 | 0.00 | 0.00 | 0.00 | 63 | 1015.1 |
| 20260905193041 | 25 | 97 | 4.8 | 16.1 | 0.00 | 0.00 | 0.00 | 63 | 1015.1 |
| 20260905192942 | 25 | 112 | 4.8 | 19.3 | 0.00 | 0.00 | 0.00 | 63 | 1015.1 |
| 20260905192842 | 25 | 72 | 4.8 | 19.3 | 0.00 | 0.00 | 0.00 | 63 | 1015.2 |
| 20260905192739 | 25 | 66 | 4.8 | 19.3 | 0.00 | 0.00 | 0.00 | 63 | 1015.2 |
| 20260905192643 | 25 | 113 | 4.8 | 19.3 | 0.00 | 0.00 | 0.00 | 63 | 1015.2 |
| 20260905192541 | 25 | 28 | 4.8 | 19.3 | 0.00 | 0.00 | 0.00 | 63 | 1015.2 |
| 20260905192439 | 25 | 91 | 3.2 | 19.3 | 0.00 | 0.00 | 0.00 | 63 | 1015.1 |
| 20260905192336 | 25 | 122 | 3.2 | 19.3 | 0.00 | 0.00 | 0.00 | 63 | 1015.2 |
| 20260905192246 | 25 | 155 | 3.2 | 19.3 | 0.00 | 0.00 | 0.00 | 63 | 1015.3 |
| 20260905192145 | 25 | 66 | 3.2 | 19.3 | 0.00 | 0.00 | 0.00 | 63 | 1015.2 |
| 20260905192031 | 25 | 113 | 3.2 | 19.3 | 0.00 | 0.00 | 0.00 | 63 | 1015.2 |
| 20260905191933 | 25 | 231 | 3.2 | 14.5 | 0.00 | 0.00 | 0.00 | 63 | 1015.3 |
| 20260905191831 | 25 | 93 | 3.2 | 14.5 | 0.00 | 0.00 | 0.00 | 63 | 1015.3 |
| 20260905191731 | 25 | 237 | 3.2 | 14.5 | 0.00 | 0.00 | 0.00 | 63 | 1015.3 |
| 20260905191636 | 25 | 237 | 4.8 | 14.5 | 0.00 | 0.00 | 0.00 | 63 | 1015.2 |
| 20260905191531 | 25 | 237 | 4.8 | 14.5 | 0.00 | 0.00 | 0.00 | 63 | 1015.3 |
| 20260905191434 | 25 | 239 | 4.8 | 14.5 | 0.00 | 0.00 | 0.00 | 63 | 1015.3 |
| 20260905191332 | 25 | 80 | 4.8 | 14.5 | 0.00 | 0.00 | 0.00 | 63 | 1015.3 |
| 20260905191232 | 25 | 96 | 4.8 | 14.5 | 0.00 | 0.00 | 0.00 | 63 | 1015.3 |
| 20260905191137 | 25 | 93 | 4.8 | 14.5 | 0.00 | 0.00 | 0.00 | 63 | 1015.4 |
| 20260905191031 | 25 | 132 | 4.8 | 12.9 | 0.00 | 0.00 | 0.00 | 63 | 1015.3 |
| 20260905190930 | 25 | 128 | 4.8 | 12.9 | 0.00 | 0.00 | 0.00 | 63 | 1015.3 |
| 20260905190832 | 25 | 219 | 4.8 | 12.9 | 0.00 | 0.00 | 0.00 | 63 | 1015.3 |
| 20260905190732 | 25 | 252 | 4.8 | 12.9 | 0.00 | 0.00 | 0.00 | 63 | 1015.3 |
| 20260905190638 | 25 | 335 | 4.8 | 12.9 | 0.00 | 0.00 | 0.00 | 63 | 1015.3 |
| 20260905190523 | 25 | 145 | 4.8 | 12.9 | 0.00 | 0.00 | 0.00 | 63 | 1015.4 |
| 20260905190423 | 25 | 124 | 4.8 | 12.9 | 0.00 | 0.00 | 0.00 | 63 | 1015.2 |
| 20260905190325 | 25 | 155 | 4.8 | 12.9 | 0.00 | 0.00 | 0.00 | 63 | 1015.2 |
| 20260905190222 | 25 | 114 | 4.8 | 12.9 | 0.00 | 0.00 | 0.00 | 63 | 1015.3 |
| 20260905190129 | 25 | 68 | 4.8 | 12.9 | 0.00 | 0.00 | 0.00 | 63 | 1015.3 |
| 20260905190031 | 25 | 356 | 4.8 | 12.9 | 0.00 | 0.00 | 0.00 | 63 | 1015.3 |
| 20260905185918 | 25 | 185 | 4.8 | 12.9 | 0.00 | 0.00 | 0.00 | 63 | 1015.3 |
| 20260905185817 | 25 | 133 | 4.8 | 12.9 | 0.00 | 0.00 | 0.00 | 63 | 1015.3 |
| 20260905185717 | 25 | 106 | 4.8 | 12.9 | 0.00 | 0.00 | 0.00 | 63 | 1015.3 |
| 20260905185623 | 25 | 85 | 4.8 | 12.9 | 0.00 | 0.00 | 0.00 | 63 | 1015.3 |
| 20260905185516 | 25 | 95 | 4.8 | 12.9 | 0.00 | 0.00 | 0.00 | 62 | 1015.3 |
| 20260905185411 | 25 | 139 | 4.8 | 12.9 | 0.00 | 0.00 | 0.00 | 62 | 1015.2 |
| 20260905185313 | 25 | 159 | 3.2 | 12.9 | 0.00 | 0.00 | 0.00 | 62 | 1015.3 |
| 20260905185211 | 25 | 101 | 3.2 | 11.3 | 0.00 | 0.00 | 0.00 | 62 | 1015.3 |
| 20260905185117 | 25 | 139 | 4.8 | 11.3 | 0.00 | 0.00 | 0.00 | 62 | 1015.4 |
| 20260905185012 | 25 | 101 | 4.8 | 11.3 | 0.00 | 0.00 | 0.00 | 62 | 1015.3 |
| 20260905184912 | 25 | 156 | 4.8 | 11.3 | 0.00 | 0.00 | 0.00 | 62 | 1015.3 |
| 20260905184810 | 25 | 260 | 4.8 | 11.3 | 0.00 | 0.00 | 0.00 | 62 | 1015.4 |
| 20260905184711 | 25 | 243 | 6.4 | 20.9 | 0.00 | 0.00 | 0.00 | 62 | 1015.3 |
| 20260905184610 | 25 | 247 | 6.4 | 20.9 | 0.00 | 0.00 | 0.00 | 62 | 1015.3 |
| 20260905184515 | 25 | 174 | 6.4 | 20.9 | 0.00 | 0.00 | 0.00 | 62 | 1015.4 |
| 20260905184410 | 25 | 170 | 6.4 | 20.9 | 0.00 | 0.00 | 0.00 | 62 | 1015.3 |
| 20260905184308 | 25 | 293 | 6.4 | 20.9 | 0.00 | 0.00 | 0.00 | 62 | 1015.4 |
| 20260905184210 | 25 | 292 | 6.4 | 20.9 | 0.00 | 0.00 | 0.00 | 62 | 1015.4 |
| 20260905184106 | 25 | 295 | 6.4 | 20.9 | 0.00 | 0.00 | 0.00 | 62 | 1015.3 |
| 20260905184008 | 25 | 5 | 6.4 | 20.9 | 0.00 | 0.00 | 0.00 | 62 | 1015.4 |
| 20260905183903 | 25 | 10 | 6.4 | 20.9 | 0.00 | 0.00 | 0.00 | 62 | 1015.3 |
| 20260905183803 | 25 | 74 | 6.4 | 20.9 | 0.00 | 0.00 | 0.00 | 62 | 1015.3 |
| 20260905183706 | 25 | 292 | 6.4 | 17.7 | 0.00 | 0.00 | 0.00 | 62 | 1015.3 |
| 20260905183604 | 25 | 307 | 6.4 | 14.5 | 0.00 | 0.00 | 0.00 | 62 | 1015.4 |
| 20260905183504 | 25 | 305 | 6.4 | 14.5 | 0.00 | 0.00 | 0.00 | 62 | 1015.4 |
| 20260905183404 | 25 | 344 | 6.4 | 19.3 | 0.00 | 0.00 | 0.00 | 62 | 1015.3 |
| 20260905183304 | 25 | 259 | 6.4 | 19.3 | 0.00 | 0.00 | 0.00 | 62 | 1015.3 |
| 20260905183205 | 25 | 272 | 6.4 | 19.3 | 0.00 | 0.00 | 0.00 | 62 | 1015.3 |
| 20260905183106 | 25 | 208 | 4.8 | 19.3 | 0.00 | 0.00 | 0.00 | 62 | 1015.3 |
| 20260905183004 | 25 | 192 | 4.8 | 19.3 | 0.00 | 0.00 | 0.00 | 62 | 1015.3 |
| 20260905182903 | 25 | 5 | 4.8 | 19.3 | 0.00 | 0.00 | 0.00 | 62 | 1015.4 |
| 20260905182804 | 25 | 338 | 4.8 | 19.3 | 0.00 | 0.00 | 0.00 | 62 | 1015.3 |
| 20260905182702 | 25 | 276 | 4.8 | 19.3 | 0.00 | 0.00 | 0.00 | 63 | 1015.2 |
| 20260905182612 | 25 | 234 | 6.4 | 19.3 | 0.00 | 0.00 | 0.00 | 62 | 1015.3 |
| 20260905182502 | 25 | 297 | 4.8 | 22.5 | 0.00 | 0.00 | 0.00 | 62 | 1015.3 |
| 20260905182402 | 25 | 355 | 4.8 | 22.5 | 0.00 | 0.00 | 0.00 | 62 | 1015.2 |
| 20260905182306 | 25 | 270 | 4.8 | 22.5 | 0.00 | 0.00 | 0.00 | 62 | 1015.3 |
| 20260905182204 | 25 | 243 | 6.4 | 22.5 | 0.00 | 0.00 | 0.00 | 62 | 1015.3 |
| 20260905182104 | 25 | 79 | 6.4 | 24.1 | 0.00 | 0.00 | 0.00 | 63 | 1015.2 |
| 20260905182004 | 25 | 141 | 8.0 | 24.1 | 0.00 | 0.00 | 0.00 | 63 | 1015.2 |
| 20260905181903 | 25 | 191 | 8.0 | 24.1 | 0.00 | 0.00 | 0.00 | 63 | 1015.3 |
| 20260905181817 | 25 | 246 | 8.0 | 24.1 | 0.00 | 0.00 | 0.00 | 62 | 1015.3 |
| 20260905181703 | 25 | 243 | 8.0 | 24.1 | 0.00 | 0.00 | 0.00 | 62 | 1015.3 |
| 20260905181602 | 25 | 185 | 8.0 | 24.1 | 0.00 | 0.00 | 0.00 | 62 | 1015.2 |
| 20260905181503 | 25 | 259 | 8.0 | 24.1 | 0.00 | 0.00 | 0.00 | 62 | 1015.2 |
| 20260905181402 | 25 | 279 | 8.0 | 24.1 | 0.00 | 0.00 | 0.00 | 62 | 1015.2 |
| 20260905181304 | 25 | 28 | 8.0 | 24.1 | 0.00 | 0.00 | 0.00 | 62 | 1015.2 |
| 20260905181204 | 25 | 320 | 8.0 | 24.1 | 0.00 | 0.00 | 0.00 | 63 | 1015.3 |
| 20260905181102 | 25 | 0 | 8.0 | 20.9 | 0.00 | 0.00 | 0.00 | 63 | 1015.1 |
| 20260905181006 | 25 | 315 | 6.4 | 20.9 | 0.00 | 0.00 | 0.00 | 62 | 1015.2 |
| 20260905180917 | 25 | 266 | 6.4 | 19.3 | 0.00 | 0.00 | 0.00 | 62 | 1015.2 |
| 20260905180804 | 25 | 214 | 6.4 | 19.3 | 0.00 | 0.00 | 0.00 | 62 | 1015.3 |
| 20260905180703 | 25 | 191 | 6.4 | 19.3 | 0.00 | 0.00 | 0.00 | 62 | 1015.2 |
| 20260905180602 | 25 | 270 | 6.4 | 19.3 | 0.00 | 0.00 | 0.00 | 62 | 1015.2 |
| 20260905180502 | 25 | 211 | 6.4 | 16.1 | 0.00 | 0.00 | 0.00 | 62 | 1015.2 |
| 20260905180403 | 25 | 166 | 6.4 | 19.3 | 0.00 | 0.00 | 0.00 | 62 | 1015.3 |
| 20260905180302 | 25 | 242 | 6.4 | 19.3 | 0.00 | 0.00 | 0.00 | 62 | 1015.2 |
| 20260905180202 | 25 | 301 | 6.4 | 19.3 | 0.00 | 0.00 | 0.00 | 62 | 1015.2 |
| 20260905180104 | 25 | 303 | 6.4 | 20.9 | 0.00 | 0.00 | 0.00 | 62 | 1015.2 |
| 20260905180017 | 25 | 227 | 8.0 | 20.9 | 0.00 | 0.00 | 0.00 | 62 | 1015.2 |
| 20260905175902 | 25 | 129 | 8.0 | 22.5 | 0.00 | 0.00 | 0.00 | 62 | 1015.1 |
| 20260905175804 | 25 | 207 | 8.0 | 22.5 | 0.00 | 0.00 | 0.00 | 62 | 1015.1 |
| 20260905175704 | 25 | 276 | 8.0 | 22.5 | 0.00 | 0.00 | 0.00 | 61 | 1015.1 |
| 20260905175603 | 25 | 241 | 8.0 | 22.5 | 0.00 | 0.00 | 0.00 | 61 | 1015.2 |
| 20260905175504 | 25 | 349 | 8.0 | 22.5 | 0.00 | 0.00 | 0.00 | 61 | 1015.2 |
| 20260905175405 | 25 | 5 | 8.0 | 22.5 | 0.00 | 0.00 | 0.00 | 61 | 1015.2 |
| 20260905175306 | 25 | 182 | 8.0 | 22.5 | 0.00 | 0.00 | 0.00 | 61 | 1015.2 |
| 20260905175204 | 25 | 243 | 8.0 | 22.5 | 0.00 | 0.00 | 0.00 | 61 | 1015.2 |
| 20260905175104 | 25 | 312 | 8.0 | 22.5 | 0.00 | 0.00 | 0.00 | 61 | 1015.1 |
| 20260905175003 | 25 | 317 | 8.0 | 22.5 | 0.00 | 0.00 | 0.00 | 61 | 1015.1 |
| 20260905174903 | 25 | 203 | 8.0 | 27.4 | 0.00 | 0.00 | 0.00 | 61 | 1015.1 |
| 20260905174803 | 25 | 235 | 9.7 | 27.4 | 0.00 | 0.00 | 0.00 | 61 | 1015.1 |
| 20260905174703 | 25 | 347 | 9.7 | 27.4 | 0.00 | 0.00 | 0.00 | 61 | 1015.2 |
| 20260905174604 | 25 | 295 | 9.7 | 27.4 | 0.00 | 0.00 | 0.00 | 61 | 1015.3 |
| 20260905174502 | 25 | 325 | 9.7 | 27.4 | 0.00 | 0.00 | 0.00 | 61 | 1015.1 |
| 20260905174420 | 26 | 234 | 11.3 | 27.4 | 0.00 | 0.00 | 0.00 | 61 | 1015.2 |
| 20260905174303 | 26 | 334 | 11.3 | 27.4 | 0.00 | 0.00 | 0.00 | 60 | 1015.2 |
| 20260905174203 | 26 | 240 | 11.3 | 27.4 | 0.00 | 0.00 | 0.00 | 60 | 1015.1 |
| 20260905174102 | 26 | 207 | 12.9 | 27.4 | 0.00 | 0.00 | 0.00 | 60 | 1015.2 |
| 20260905174003 | 26 | 321 | 12.9 | 27.4 | 0.00 | 0.00 | 0.00 | 60 | 1015.2 |
| 20260905173902 | 26 | 260 | 12.9 | 29.0 | 0.00 | 0.00 | 0.00 | 59 | 1015.2 |
| 20260905173804 | 26 | 301 | 12.9 | 29.0 | 0.00 | 0.00 | 0.00 | 59 | 1015.1 |
| 20260905173702 | 26 | 315 | 12.9 | 29.0 | 0.00 | 0.00 | 0.00 | 59 | 1015.2 |
| 20260905173602 | 26 | 76 | 12.9 | 29.0 | 0.00 | 0.00 | 0.00 | 60 | 1015.2 |
| 20260905173504 | 26 | 328 | 12.9 | 29.0 | 0.00 | 0.00 | 0.00 | 60 | 1015.1 |
| 20260905173402 | 26 | 311 | 12.9 | 29.0 | 0.00 | 0.00 | 0.00 | 60 | 1015.1 |
| 20260905173303 | 26 | 10 | 11.3 | 29.0 | 0.00 | 0.00 | 0.00 | 59 | 1015.1 |
| 20260905173203 | 26 | 280 | 11.3 | 29.0 | 0.00 | 0.00 | 0.00 | 59 | 1015.1 |
| 20260905173102 | 26 | 310 | 11.3 | 29.0 | 0.00 | 0.00 | 0.00 | 59 | 1015.0 |
| 20260905173003 | 26 | 264 | 9.7 | 29.0 | 0.00 | 0.00 | 0.00 | 59 | 1015.0 |
| 20260905172904 | 25 | 259 | 9.7 | 24.1 | 0.00 | 0.00 | 0.00 | 59 | 1015.1 |
| 20260905172803 | 25 | 340 | 9.7 | 24.1 | 0.00 | 0.00 | 0.00 | 59 | 1015.0 |
| 20260905172705 | 25 | 294 | 8.0 | 24.1 | 0.00 | 0.00 | 0.00 | 60 | 1015.0 |
| 20260905172603 | 25 | 327 | 8.0 | 24.1 | 0.00 | 0.00 | 0.00 | 60 | 1015.0 |
| 20260905172502 | 25 | 309 | 6.4 | 24.1 | 0.00 | 0.00 | 0.00 | 60 | 1015.0 |
| 20260905172403 | 25 | 293 | 6.4 | 20.9 | 0.00 | 0.00 | 0.00 | 61 | 1015.0 |
| 20260905172305 | 25 | 181 | 6.4 | 19.3 | 0.00 | 0.00 | 0.00 | 61 | 1015.0 |
| 20260905172202 | 25 | 252 | 6.4 | 19.3 | 0.00 | 0.00 | 0.00 | 61 | 1014.9 |
| 20260905172104 | 25 | 272 | 6.4 | 19.3 | 0.00 | 0.00 | 0.00 | 62 | 1015.0 |
| 20260905172002 | 25 | 301 | 4.8 | 16.1 | 0.00 | 0.00 | 0.00 | 62 | 1014.9 |
| 20260905171902 | 25 | 253 | 6.4 | 14.5 | 0.00 | 0.00 | 0.00 | 63 | 1014.9 |
| 20260905171805 | 25 | 226 | 6.4 | 22.5 | 0.00 | 0.00 | 0.00 | 63 | 1014.9 |
| 20260905171703 | 25 | 114 | 6.4 | 24.1 | 0.00 | 0.00 | 0.00 | 63 | 1015.0 |
| 20260905171601 | 25 | 266 | 6.4 | 24.1 | 0.00 | 0.00 | 0.00 | 63 | 1015.0 |
| 20260905171503 | 25 | 268 | 6.4 | 24.1 | 0.00 | 0.00 | 0.00 | 63 | 1015.0 |
| 20260905171404 | 25 | 309 | 8.0 | 24.1 | 0.00 | 0.00 | 0.00 | 63 | 1015.0 |
| 20260905171304 | 25 | 220 | 8.0 | 24.1 | 0.00 | 0.00 | 0.00 | 63 | 1015.1 |
| 20260905171203 | 25 | 231 | 8.0 | 24.1 | 0.00 | 0.00 | 0.00 | 63 | 1015.1 |
| 20260905171103 | 25 | 230 | 8.0 | 24.1 | 0.00 | 0.00 | 0.00 | 63 | 1015.0 |
| 20260905171003 | 25 | 241 | 8.0 | 24.1 | 0.00 | 0.00 | 0.00 | 63 | 1015.2 |
| 20260905170903 | 25 | 320 | 8.0 | 24.1 | 0.00 | 0.00 | 0.00 | 62 | 1015.0 |
| 20260905170805 | 25 | 276 | 8.0 | 24.1 | 0.00 | 0.00 | 0.00 | 62 | 1015.1 |
| 20260905170703 | 25 | 290 | 8.0 | 20.9 | 0.00 | 0.00 | 0.00 | 62 | 1015.1 |
| 20260905170603 | 25 | 205 | 8.0 | 20.9 | 0.00 | 0.00 | 0.00 | 63 | 1015.1 |
| 20260905170504 | 25 | 66 | 6.4 | 20.9 | 0.00 | 0.00 | 0.00 | 63 | 1015.1 |
| 20260905170404 | 25 | 256 | 6.4 | 20.9 | 0.00 | 0.00 | 0.00 | 63 | 1015.1 |
| 20260905170302 | 25 | 272 | 8.0 | 20.9 | 0.00 | 0.00 | 0.00 | 63 | 1015.0 |
| 20260905170203 | 25 | 301 | 8.0 | 22.5 | 0.00 | 0.00 | 0.00 | 63 | 1015.0 |
| 20260905170006 | 25 | 234 | 8.0 | 22.5 | 0.00 | 0.00 | 0.00 | 63 | 1015.0 |
| 20260905165903 | 25 | 302 | 8.0 | 22.5 | 0.00 | 0.00 | 0.00 | 63 | 1014.9 |
| 20260905165803 | 25 | 50 | 6.4 | 22.5 | 0.00 | 0.00 | 0.00 | 63 | 1014.9 |
| 20260905165704 | 25 | 306 | 8.0 | 22.5 | 0.00 | 0.00 | 0.00 | 63 | 1015.0 |
| 20260905165604 | 25 | 311 | 8.0 | 22.5 | 0.00 | 0.00 | 0.00 | 63 | 1014.9 |
| 20260905165502 | 25 | 186 | 8.0 | 22.5 | 0.00 | 0.00 | 0.00 | 63 | 1014.9 |
| 20260905165403 | 25 | 54 | 8.0 | 22.5 | 0.00 | 0.00 | 0.00 | 63 | 1014.9 |
| 20260905165306 | 25 | 51 | 6.4 | 22.5 | 0.00 | 0.00 | 0.00 | 63 | 1014.9 |
| 20260905165205 | 26 | 180 | 6.4 | 22.5 | 0.00 | 0.00 | 0.00 | 63 | 1014.9 |
| 20260905165103 | 26 | 110 | 6.4 | 22.5 | 0.00 | 0.00 | 0.00 | 63 | 1014.9 |
| 20260905165003 | 26 | 32 | 6.4 | 22.5 | 0.00 | 0.00 | 0.00 | 63 | 1014.8 |
| 20260905164903 | 26 | 124 | 6.4 | 22.5 | 0.00 | 0.00 | 0.00 | 63 | 1014.8 |
| 20260905164803 | 26 | 233 | 6.4 | 22.5 | 0.00 | 0.00 | 0.00 | 63 | 1014.8 |
| 20260905164703 | 26 | 237 | 6.4 | 19.3 | 0.00 | 0.00 | 0.00 | 62 | 1014.8 |
| 20260905164603 | 26 | 278 | 6.4 | 19.3 | 0.00 | 0.00 | 0.00 | 62 | 1014.8 |
| 20260905164502 | 26 | 14 | 6.4 | 19.3 | 0.00 | 0.00 | 0.00 | 62 | 1014.9 |
| 20260905164402 | 26 | 215 | 6.4 | 19.3 | 0.00 | 0.00 | 0.00 | 62 | 1014.8 |
| 20260905164305 | 26 | 332 | 6.4 | 19.3 | 0.00 | 0.00 | 0.00 | 62 | 1014.9 |
| 20260905164203 | 26 | 272 | 6.4 | 19.3 | 0.00 | 0.00 | 0.00 | 63 | 1014.8 |
| 20260905164102 | 26 | 307 | 6.4 | 19.3 | 0.00 | 0.00 | 0.00 | 63 | 1014.8 |
| 20260905164002 | 26 | 331 | 6.4 | 25.7 | 0.00 | 0.00 | 0.00 | 63 | 1014.9 |
| 20260905163902 | 26 | 249 | 8.0 | 25.7 | 0.00 | 0.00 | 0.00 | 63 | 1014.8 |
| 20260905163803 | 26 | 214 | 8.0 | 25.7 | 0.00 | 0.00 | 0.00 | 63 | 1014.8 |
| 20260905163702 | 26 | 139 | 9.7 | 25.7 | 0.00 | 0.00 | 0.00 | 63 | 1014.8 |
| 20260905163602 | 26 | 233 | 9.7 | 29.0 | 0.00 | 0.00 | 0.00 | 63 | 1014.9 |
| 20260905163508 | 26 | 180 | 9.7 | 29.0 | 0.00 | 0.00 | 0.00 | 63 | 1014.8 |
| 20260905163405 | 26 | 270 | 9.7 | 29.0 | 0.00 | 0.00 | 0.00 | 64 | 1014.9 |
| 20260905163304 | 26 | 269 | 9.7 | 29.0 | 0.00 | 0.00 | 0.00 | 63 | 1014.9 |
| 20260905163204 | 26 | 341 | 11.3 | 29.0 | 0.00 | 0.00 | 0.00 | 63 | 1014.8 |
| 20260905163104 | 26 | 54 | 9.7 | 29.0 | 0.00 | 0.00 | 0.00 | 63 | 1014.9 |
| 20260905163006 | 26 | 258 | 9.7 | 29.0 | 0.00 | 0.00 | 0.00 | 64 | 1014.9 |
| 20260905162853 | 26 | 284 | 9.7 | 29.0 | 0.00 | 0.00 | 0.00 | 63 | 1015.0 |
| 20260905162753 | 26 | 238 | 9.7 | 29.0 | 0.00 | 0.00 | 0.00 | 63 | 1015.0 |
| 20260905162654 | 26 | 49 | 8.0 | 29.0 | 0.00 | 0.00 | 0.00 | 64 | 1014.9 |
| 20260905162555 | 26 | 278 | 8.0 | 22.5 | 0.00 | 0.00 | 0.00 | 64 | 1015.0 |
| 20260905162459 | 26 | 266 | 8.0 | 22.5 | 0.00 | 0.00 | 0.00 | 64 | 1015.0 |
| 20260905162351 | 26 | 296 | 8.0 | 22.5 | 0.00 | 0.00 | 0.00 | 64 | 1014.9 |
| 20260905162249 | 26 | 343 | 8.0 | 22.5 | 0.00 | 0.00 | 0.00 | 64 | 1015.0 |
| 20260905162152 | 26 | 228 | 8.0 | 17.7 | 0.00 | 0.00 | 0.00 | 64 | 1015.0 |
| 20260905162050 | 26 | 320 | 6.4 | 17.7 | 0.00 | 0.00 | 0.00 | 65 | 1014.9 |
| 20260905161949 | 26 | 312 | 6.4 | 17.7 | 0.00 | 0.00 | 0.00 | 65 | 1015.0 |
| 20260905161844 | 26 | 268 | 6.4 | 17.7 | 0.00 | 0.00 | 0.00 | 65 | 1015.0 |
| 20260905161742 | 26 | 254 | 6.4 | 17.7 | 0.00 | 0.00 | 0.00 | 65 | 1014.9 |
| 20260905161643 | 26 | 330 | 6.4 | 17.7 | 0.00 | 0.00 | 0.00 | 65 | 1015.0 |
| 20260905161542 | 26 | 301 | 6.4 | 17.7 | 0.00 | 0.00 | 0.00 | 65 | 1015.0 |
| 20260905161442 | 26 | 5 | 6.4 | 17.7 | 0.00 | 0.00 | 0.00 | 64 | 1015.0 |
| 20260905161337 | 26 | 322 | 6.4 | 17.7 | 0.00 | 0.00 | 0.00 | 64 | 1015.1 |
| 20260905161235 | 26 | 274 | 6.4 | 14.5 | 0.00 | 0.00 | 0.00 | 65 | 1014.9 |
| 20260905161136 | 26 | 199 | 6.4 | 16.1 | 0.00 | 0.00 | 0.00 | 65 | 1015.1 |
| 20260905161036 | 26 | 222 | 8.0 | 22.5 | 0.00 | 0.00 | 0.00 | 65 | 1015.0 |
| 20260905160936 | 26 | 276 | 8.0 | 22.5 | 0.00 | 0.00 | 0.00 | 65 | 1015.0 |
| 20260905160837 | 26 | 40 | 9.7 | 22.5 | 0.00 | 0.00 | 0.00 | 65 | 1015.0 |
| 20260905160735 | 26 | 352 | 9.7 | 24.1 | 0.00 | 0.00 | 0.00 | 65 | 1015.0 |
| 20260905160633 | 26 | 349 | 9.7 | 24.1 | 0.00 | 0.00 | 0.00 | 65 | 1015.0 |
| 20260905160532 | 26 | 314 | 9.7 | 24.1 | 0.00 | 0.00 | 0.00 | 65 | 1015.1 |
| 20260905160431 | 26 | 282 | 9.7 | 24.1 | 0.00 | 0.00 | 0.00 | 65 | 1015.0 |
| 20260905160332 | 26 | 303 | 9.7 | 24.1 | 0.00 | 0.00 | 0.00 | 65 | 1015.0 |
| 20260905160231 | 26 | 266 | 11.3 | 24.1 | 0.00 | 0.00 | 0.00 | 65 | 1015.0 |
| 20260905160131 | 26 | 256 | 9.7 | 24.1 | 0.00 | 0.00 | 0.00 | 65 | 1015.0 |
| 20260905160032 | 26 | 277 | 9.7 | 24.1 | 0.00 | 0.00 | 0.00 | 65 | 1015.0 |
| 20260905155931 | 26 | 272 | 9.7 | 24.1 | 0.00 | 0.00 | 0.00 | 65 | 1015.1 |
| 20260905155832 | 26 | 326 | 9.7 | 24.1 | 0.00 | 0.00 | 0.00 | 65 | 1015.0 |
| 20260905155732 | 26 | 282 | 9.7 | 24.1 | 0.00 | 0.00 | 0.00 | 65 | 1015.0 |
| 20260905155631 | 26 | 224 | 9.7 | 24.1 | 0.00 | 0.00 | 0.00 | 65 | 1015.1 |
| 20260905155532 | 26 | 272 | 9.7 | 24.1 | 0.00 | 0.00 | 0.00 | 65 | 1015.1 |
| 20260905155431 | 26 | 304 | 9.7 | 24.1 | 0.00 | 0.00 | 0.00 | 65 | 1014.9 |
| 20260905155331 | 26 | 260 | 9.7 | 24.1 | 0.00 | 0.00 | 0.00 | 65 | 1015.1 |
| 20260905155232 | 26 | 262 | 8.0 | 24.1 | 0.00 | 0.00 | 0.00 | 65 | 1014.9 |
| 20260905155132 | 26 | 315 | 9.7 | 24.1 | 0.00 | 0.00 | 0.00 | 65 | 1015.0 |
| 20260905155029 | 26 | 285 | 9.7 | 24.1 | 0.00 | 0.00 | 0.00 | 65 | 1015.0 |
| 20260905154933 | 26 | 223 | 9.7 | 24.1 | 0.00 | 0.00 | 0.00 | 65 | 1014.9 |
| 20260905154830 | 26 | 124 | 9.7 | 24.1 | 0.00 | 0.00 | 0.00 | 65 | 1015.0 |
| 20260905154730 | 26 | 298 | 9.7 | 24.1 | 0.00 | 0.00 | 0.00 | 65 | 1014.9 |
| 20260905154631 | 26 | 261 | 9.7 | 27.4 | 0.00 | 0.00 | 0.00 | 65 | 1014.9 |
| 20260905154529 | 26 | 243 | 9.7 | 27.4 | 0.00 | 0.00 | 0.00 | 64 | 1014.9 |
| 20260905154429 | 26 | 303 | 9.7 | 27.4 | 0.00 | 0.00 | 0.00 | 64 | 1014.9 |
| 20260905154331 | 26 | 272 | 9.7 | 27.4 | 0.00 | 0.00 | 0.00 | 64 | 1014.9 |
| 20260905154230 | 26 | 347 | 9.7 | 27.4 | 0.00 | 0.00 | 0.00 | 64 | 1014.9 |
| 20260905154132 | 26 | 310 | 9.7 | 27.4 | 0.00 | 0.00 | 0.00 | 64 | 1014.9 |
| 20260905154029 | 26 | 336 | 9.7 | 27.4 | 0.00 | 0.00 | 0.00 | 64 | 1014.9 |
| 20260905153943 | 26 | 5 | 9.7 | 27.4 | 0.00 | 0.00 | 0.00 | 64 | 1014.8 |
| 20260905153829 | 26 | 265 | 9.7 | 27.4 | 0.00 | 0.00 | 0.00 | 63 | 1014.9 |
| 20260905153730 | 27 | 269 | 9.7 | 27.4 | 0.00 | 0.00 | 0.00 | 63 | 1015.0 |
| 20260905153631 | 27 | 322 | 9.7 | 25.7 | 0.00 | 0.00 | 0.00 | 63 | 1014.8 |
| 20260905153529 | 27 | 199 | 9.7 | 25.7 | 0.00 | 0.00 | 0.00 | 63 | 1014.8 |
| 20260905153431 | 27 | 252 | 9.7 | 25.7 | 0.00 | 0.00 | 0.00 | 63 | 1014.8 |
| 20260905153330 | 27 | 306 | 9.7 | 25.7 | 0.00 | 0.00 | 0.00 | 63 | 1014.8 |
| 20260905153233 | 27 | 280 | 9.7 | 25.7 | 0.00 | 0.00 | 0.00 | 63 | 1014.8 |
| 20260905153133 | 26 | 205 | 9.7 | 30.6 | 0.00 | 0.00 | 0.00 | 63 | 1014.8 |
| 20260905153030 | 26 | 316 | 9.7 | 30.6 | 0.00 | 0.00 | 0.00 | 63 | 1014.8 |
| 20260905152924 | 26 | 288 | 9.7 | 30.6 | 0.00 | 0.00 | 0.00 | 63 | 1014.7 |
| 20260905152824 | 27 | 249 | 9.7 | 30.6 | 0.00 | 0.00 | 0.00 | 63 | 1014.8 |
| 20260905152723 | 27 | 252 | 9.7 | 30.6 | 0.00 | 0.00 | 0.00 | 63 | 1014.8 |
| 20260905152623 | 27 | 324 | 9.7 | 30.6 | 0.00 | 0.00 | 0.00 | 63 | 1014.7 |
| 20260905152525 | 27 | 207 | 9.7 | 30.6 | 0.00 | 0.00 | 0.00 | 63 | 1014.6 |
| 20260905152418 | 27 | 168 | 11.3 | 38.6 | 0.00 | 0.00 | 0.00 | 63 | 1014.8 |
| 20260905152317 | 27 | 296 | 11.3 | 38.6 | 0.00 | 0.00 | 0.00 | 63 | 1014.7 |
| 20260905152218 | 27 | 257 | 11.3 | 38.6 | 0.00 | 0.00 | 0.00 | 62 | 1014.7 |
| 20260905152118 | 27 | 267 | 9.7 | 38.6 | 0.00 | 0.00 | 0.00 | 62 | 1014.8 |
| 20260905152021 | 27 | 61 | 11.3 | 38.6 | 0.00 | 0.00 | 0.00 | 62 | 1014.7 |
| 20260905151911 | 27 | 310 | 11.3 | 38.6 | 0.00 | 0.00 | 0.00 | 62 | 1014.7 |
| 20260905151813 | 27 | 347 | 11.3 | 38.6 | 0.00 | 0.00 | 0.00 | 62 | 1014.8 |
| 20260905151712 | 27 | 131 | 11.3 | 38.6 | 0.00 | 0.00 | 0.00 | 62 | 1014.7 |
| 20260905151613 | 27 | 242 | 12.9 | 38.6 | 0.00 | 0.00 | 0.00 | 62 | 1014.7 |
| 20260905151513 | 27 | 305 | 11.3 | 33.8 | 0.00 | 0.00 | 0.00 | 62 | 1014.6 |
| 20260905151405 | 27 | 46 | 9.7 | 33.8 | 0.00 | 0.00 | 0.00 | 62 | 1014.6 |
| 20260905151306 | 26 | 313 | 9.7 | 33.8 | 0.00 | 0.00 | 0.00 | 62 | 1014.6 |
| 20260905151203 | 27 | 284 | 9.7 | 33.8 | 0.00 | 0.00 | 0.00 | 61 | 1014.6 |
| 20260905151103 | 27 | 296 | 9.7 | 33.8 | 0.00 | 0.00 | 0.00 | 62 | 1014.6 |
| 20260905151004 | 27 | 273 | 9.7 | 33.8 | 0.00 | 0.00 | 0.00 | 61 | 1014.5 |
| 20260905150903 | 27 | 319 | 9.7 | 33.8 | 0.00 | 0.00 | 0.00 | 61 | 1014.5 |
| 20260905150803 | 27 | 291 | 8.0 | 33.8 | 0.00 | 0.00 | 0.00 | 61 | 1014.5 |
| 20260905150704 | 27 | 329 | 8.0 | 27.4 | 0.00 | 0.00 | 0.00 | 61 | 1014.5 |
| 20260905150602 | 27 | 212 | 8.0 | 27.4 | 0.00 | 0.00 | 0.00 | 61 | 1014.5 |
| 20260905150502 | 27 | 211 | 9.7 | 27.4 | 0.00 | 0.00 | 0.00 | 61 | 1014.5 |
| 20260905150403 | 27 | 343 | 9.7 | 27.4 | 0.00 | 0.00 | 0.00 | 61 | 1014.5 |
| 20260905150305 | 27 | 336 | 9.7 | 27.4 | 0.00 | 0.00 | 0.00 | 61 | 1014.5 |
| 20260905150204 | 27 | 43 | 9.7 | 27.4 | 0.00 | 0.00 | 0.00 | 61 | 1014.5 |
| 20260905150103 | 27 | 128 | 9.7 | 27.4 | 0.00 | 0.00 | 0.00 | 61 | 1014.4 |
| 20260905150004 | 27 | 191 | 11.3 | 27.4 | 0.00 | 0.00 | 0.00 | 61 | 1014.5 |
| 20260905145906 | 27 | 262 | 9.7 | 27.4 | 0.00 | 0.00 | 0.00 | 61 | 1014.6 |
| 20260905145803 | 27 | 323 | 11.3 | 27.4 | 0.00 | 0.00 | 0.00 | 61 | 1014.6 |
| 20260905145703 | 27 | 312 | 9.7 | 27.4 | 0.00 | 0.00 | 0.00 | 61 | 1014.6 |
| 20260905145602 | 27 | 301 | 9.7 | 24.1 | 0.00 | 0.00 | 0.00 | 62 | 1014.6 |
| 20260905145503 | 27 | 274 | 11.3 | 24.1 | 0.00 | 0.00 | 0.00 | 61 | 1014.5 |
| 20260905145403 | 27 | 145 | 11.3 | 24.1 | 0.00 | 0.00 | 0.00 | 62 | 1014.5 |
| 20260905145306 | 27 | 228 | 11.3 | 24.1 | 0.00 | 0.00 | 0.00 | 62 | 1014.6 |
| 20260905145203 | 27 | 251 | 11.3 | 24.1 | 0.00 | 0.00 | 0.00 | 62 | 1014.6 |
| 20260905145102 | 27 | 256 | 11.3 | 24.1 | 0.00 | 0.00 | 0.00 | 62 | 1014.6 |
| 20260905145006 | 27 | 255 | 9.7 | 24.1 | 0.00 | 0.00 | 0.00 | 62 | 1014.6 |
| 20260905144903 | 27 | 291 | 11.3 | 24.1 | 0.00 | 0.00 | 0.00 | 62 | 1014.6 |
| 20260905144802 | 27 | 272 | 11.3 | 24.1 | 0.00 | 0.00 | 0.00 | 62 | 1014.6 |
| 20260905144703 | 27 | 138 | 11.3 | 24.1 | 0.00 | 0.00 | 0.00 | 62 | 1014.6 |
| 20260905144602 | 27 | 207 | 11.3 | 32.2 | 0.00 | 0.00 | 0.00 | 62 | 1014.6 |
| 20260905144504 | 27 | 274 | 12.9 | 32.2 | 0.00 | 0.00 | 0.00 | 62 | 1014.6 |
| 20260905144402 | 27 | 205 | 12.9 | 32.2 | 0.00 | 0.00 | 0.00 | 62 | 1014.7 |
| 20260905144303 | 27 | 338 | 12.9 | 32.2 | 0.00 | 0.00 | 0.00 | 62 | 1014.7 |
| 20260905144202 | 27 | 348 | 12.9 | 32.2 | 0.00 | 0.00 | 0.00 | 62 | 1014.6 |
| 20260905144104 | 27 | 303 | 12.9 | 32.2 | 0.00 | 0.00 | 0.00 | 62 | 1014.6 |
| 20260905144002 | 27 | 316 | 14.5 | 32.2 | 0.00 | 0.00 | 0.00 | 62 | 1014.7 |
| 20260905143902 | 27 | 249 | 14.5 | 32.2 | 0.00 | 0.00 | 0.00 | 62 | 1014.7 |
| 20260905143803 | 27 | 283 | 14.5 | 32.2 | 0.00 | 0.00 | 0.00 | 62 | 1014.7 |
| 20260905143704 | 27 | 351 | 12.9 | 32.2 | 0.00 | 0.00 | 0.00 | 62 | 1014.6 |
| 20260905143604 | 27 | 265 | 12.9 | 29.0 | 0.00 | 0.00 | 0.00 | 62 | 1014.6 |
| 20260905143502 | 27 | 312 | 12.9 | 29.0 | 0.00 | 0.00 | 0.00 | 62 | 1014.7 |
| 20260905143402 | 27 | 308 | 12.9 | 29.0 | 0.00 | 0.00 | 0.00 | 62 | 1014.5 |
| 20260905143304 | 27 | 222 | 12.9 | 29.0 | 0.00 | 0.00 | 0.00 | 61 | 1014.6 |
| 20260905143202 | 27 | 294 | 12.9 | 29.0 | 0.00 | 0.00 | 0.00 | 61 | 1014.7 |
| 20260905143103 | 27 | 302 | 12.9 | 29.0 | 0.00 | 0.00 | 0.00 | 61 | 1014.7 |
| 20260905143002 | 27 | 328 | 12.9 | 29.0 | 0.00 | 0.00 | 0.00 | 61 | 1014.6 |
| 20260905142903 | 27 | 255 | 14.5 | 29.0 | 0.00 | 0.00 | 0.00 | 61 | 1014.6 |
| 20260905142803 | 27 | 355 | 14.5 | 29.0 | 0.00 | 0.00 | 0.00 | 61 | 1014.6 |
| 20260905142705 | 27 | 264 | 14.5 | 29.0 | 0.00 | 0.00 | 0.00 | 61 | 1014.6 |
| 20260905142602 | 27 | 266 | 14.5 | 29.0 | 0.00 | 0.00 | 0.00 | 61 | 1014.7 |
| 20260905142506 | 27 | 296 | 14.5 | 29.0 | 0.00 | 0.00 | 0.00 | 61 | 1014.6 |
| 20260905142403 | 27 | 299 | 14.5 | 29.0 | 0.00 | 0.00 | 0.00 | 61 | 1014.7 |
| 20260905142306 | 27 | 282 | 14.5 | 29.0 | 0.00 | 0.00 | 0.00 | 61 | 1014.7 |
| 20260905142203 | 27 | 5 | 14.5 | 29.0 | 0.00 | 0.00 | 0.00 | 61 | 1014.7 |
| 20260905142103 | 27 | 303 | 14.5 | 29.0 | 0.00 | 0.00 | 0.00 | 62 | 1014.6 |
| 20260905142002 | 27 | 310 | 12.9 | 29.0 | 0.00 | 0.00 | 0.00 | 61 | 1014.6 |
| 20260905141909 | 27 | 262 | 14.5 | 29.0 | 0.00 | 0.00 | 0.00 | 62 | 1014.6 |
| 20260905141804 | 27 | 271 | 14.5 | 37.0 | 0.00 | 0.00 | 0.00 | 62 | 1014.7 |
| 20260905141707 | 27 | 164 | 14.5 | 37.0 | 0.00 | 0.00 | 0.00 | 62 | 1014.7 |
| 20260905141603 | 27 | 286 | 16.1 | 37.0 | 0.00 | 0.00 | 0.00 | 62 | 1014.7 |
| 20260905141504 | 27 | 107 | 16.1 | 37.0 | 0.00 | 0.00 | 0.00 | 63 | 1014.6 |
| 20260905141407 | 27 | 279 | 16.1 | 37.0 | 0.00 | 0.00 | 0.00 | 63 | 1014.8 |
| 20260905141302 | 27 | 313 | 16.1 | 37.0 | 0.00 | 0.00 | 0.00 | 63 | 1014.8 |
| 20260905141202 | 27 | 273 | 16.1 | 37.0 | 0.00 | 0.00 | 0.00 | 62 | 1014.9 |
| 20260905141103 | 27 | 320 | 16.1 | 37.0 | 0.00 | 0.00 | 0.00 | 63 | 1014.8 |
| 20260905141003 | 27 | 265 | 16.1 | 37.0 | 0.00 | 0.00 | 0.00 | 63 | 1014.8 |
| 20260905140903 | 27 | 337 | 16.1 | 37.0 | 0.00 | 0.00 | 0.00 | 63 | 1014.8 |
| 20260905140804 | 27 | 300 | 16.1 | 29.0 | 0.00 | 0.00 | 0.00 | 63 | 1014.7 |
| 20260905140704 | 27 | 317 | 16.1 | 29.0 | 0.00 | 0.00 | 0.00 | 63 | 1014.8 |
| 20260905140602 | 27 | 330 | 16.1 | 32.2 | 0.00 | 0.00 | 0.00 | 63 | 1014.8 |
| 20260905140504 | 27 | 279 | 14.5 | 32.2 | 0.00 | 0.00 | 0.00 | 63 | 1014.8 |
| 20260905140402 | 27 | 334 | 14.5 | 32.2 | 0.00 | 0.00 | 0.00 | 63 | 1014.9 |
| 20260905140304 | 27 | 321 | 14.5 | 32.2 | 0.00 | 0.00 | 0.00 | 63 | 1014.8 |
| 20260905140202 | 27 | 273 | 16.1 | 32.2 | 0.00 | 0.00 | 0.00 | 63 | 1014.9 |
| 20260905140104 | 27 | 298 | 16.1 | 32.2 | 0.00 | 0.00 | 0.00 | 63 | 1014.8 |
| 20260905140007 | 27 | 331 | 16.1 | 32.2 | 0.00 | 0.00 | 0.00 | 63 | 1014.7 |
| 20260905135903 | 27 | 328 | 16.1 | 32.2 | 0.00 | 0.00 | 0.00 | 63 | 1014.8 |
| 20260905135802 | 27 | 326 | 16.1 | 32.2 | 0.00 | 0.00 | 0.00 | 63 | 1014.8 |
| 20260905135702 | 27 | 315 | 16.1 | 32.2 | 0.00 | 0.00 | 0.00 | 63 | 1014.9 |
| 20260905135602 | 27 | 311 | 16.1 | 32.2 | 0.00 | 0.00 | 0.00 | 63 | 1014.7 |
| 20260905135503 | 27 | 332 | 16.1 | 32.2 | 0.00 | 0.00 | 0.00 | 63 | 1014.6 |
| 20260905135403 | 27 | 297 | 16.1 | 32.2 | 0.00 | 0.00 | 0.00 | 63 | 1014.7 |
| 20260905135306 | 27 | 330 | 16.1 | 32.2 | 0.00 | 0.00 | 0.00 | 62 | 1014.7 |
| 20260905135203 | 27 | 286 | 14.5 | 32.2 | 0.00 | 0.00 | 0.00 | 62 | 1014.7 |
| 20260905135104 | 27 | 320 | 14.5 | 32.2 | 0.00 | 0.00 | 0.00 | 62 | 1014.6 |
| 20260905135002 | 27 | 287 | 14.5 | 32.2 | 0.00 | 0.00 | 0.00 | 62 | 1014.6 |
| 20260905134903 | 27 | 321 | 14.5 | 32.2 | 0.00 | 0.00 | 0.00 | 62 | 1014.5 |
| 20260905134802 | 27 | 321 | 14.5 | 32.2 | 0.00 | 0.00 | 0.00 | 62 | 1014.5 |
| 20260905134702 | 27 | 71 | 14.5 | 32.2 | 0.00 | 0.00 | 0.00 | 63 | 1014.5 |
| 20260905134603 | 27 | 287 | 14.5 | 32.2 | 0.00 | 0.00 | 0.00 | 62 | 1014.4 |
| 20260905134504 | 27 | 280 | 16.1 | 32.2 | 0.00 | 0.00 | 0.00 | 63 | 1014.6 |
| 20260905134402 | 27 | 304 | 16.1 | 32.2 | 0.00 | 0.00 | 0.00 | 64 | 1014.5 |
| 20260905134304 | 27 | 324 | 16.1 | 32.2 | 0.00 | 0.00 | 0.00 | 63 | 1014.4 |
| 20260905134203 | 27 | 316 | 16.1 | 32.2 | 0.00 | 0.00 | 0.00 | 63 | 1014.6 |
| 20260905134103 | 27 | 345 | 16.1 | 32.2 | 0.00 | 0.00 | 0.00 | 63 | 1014.5 |
| 20260905134002 | 27 | 328 | 16.1 | 29.0 | 0.00 | 0.00 | 0.00 | 63 | 1014.5 |
| 20260905133902 | 27 | 307 | 16.1 | 30.6 | 0.00 | 0.00 | 0.00 | 63 | 1014.7 |
| 20260905133804 | 27 | 0 | 16.1 | 30.6 | 0.00 | 0.00 | 0.00 | 63 | 1014.6 |
| 20260905133703 | 27 | 5 | 16.1 | 32.2 | 0.00 | 0.00 | 0.00 | 63 | 1014.6 |
| 20260905133602 | 27 | 279 | 14.5 | 32.2 | 0.00 | 0.00 | 0.00 | 63 | 1014.6 |
| 20260905133502 | 27 | 311 | 14.5 | 32.2 | 0.00 | 0.00 | 0.00 | 64 | 1014.7 |
| 20260905133404 | 27 | 273 | 14.5 | 32.2 | 0.00 | 0.00 | 0.00 | 64 | 1014.6 |
| 20260905133303 | 27 | 301 | 14.5 | 32.2 | 0.00 | 0.00 | 0.00 | 64 | 1014.5 |
| 20260905133203 | 27 | 300 | 14.5 | 32.2 | 0.00 | 0.00 | 0.00 | 64 | 1014.4 |
| 20260905133103 | 27 | 271 | 12.9 | 32.2 | 0.00 | 0.00 | 0.00 | 64 | 1014.6 |
| 20260905133004 | 27 | 301 | 12.9 | 32.2 | 0.00 | 0.00 | 0.00 | 64 | 1014.4 |
| 20260905132902 | 27 | 298 | 11.3 | 32.2 | 0.00 | 0.00 | 0.00 | 64 | 1014.5 |
| 20260905132803 | 27 | 285 | 11.3 | 32.2 | 0.00 | 0.00 | 0.00 | 64 | 1014.4 |
| 20260905132704 | 27 | 289 | 12.9 | 29.0 | 0.00 | 0.00 | 0.00 | 64 | 1014.5 |
| 20260905132604 | 27 | 349 | 11.3 | 27.4 | 0.00 | 0.00 | 0.00 | 64 | 1014.5 |
| 20260905132505 | 27 | 239 | 11.3 | 27.4 | 0.00 | 0.00 | 0.00 | 64 | 1014.5 |
| 20260905132404 | 27 | 241 | 12.9 | 27.4 | 0.00 | 0.00 | 0.00 | 64 | 1014.5 |
| 20260905132305 | 27 | 21 | 11.3 | 27.4 | 0.00 | 0.00 | 0.00 | 64 | 1014.5 |
| 20260905132205 | 27 | 74 | 12.9 | 27.4 | 0.00 | 0.00 | 0.00 | 65 | 1014.4 |
| 20260905132104 | 27 | 310 | 12.9 | 27.4 | 0.00 | 0.00 | 0.00 | 65 | 1014.4 |
| 20260905132002 | 27 | 139 | 14.5 | 27.4 | 0.00 | 0.00 | 0.00 | 65 | 1014.5 |
| 20260905131902 | 27 | 293 | 14.5 | 30.6 | 0.00 | 0.00 | 0.00 | 65 | 1014.5 |
| 20260905131803 | 27 | 265 | 14.5 | 30.6 | 0.00 | 0.00 | 0.00 | 65 | 1014.4 |
| 20260905131703 | 27 | 303 | 14.5 | 30.6 | 0.00 | 0.00 | 0.00 | 64 | 1014.5 |
| 20260905131605 | 27 | 253 | 12.9 | 30.6 | 0.00 | 0.00 | 0.00 | 65 | 1014.4 |
| 20260905131503 | 27 | 335 | 12.9 | 30.6 | 0.00 | 0.00 | 0.00 | 65 | 1014.5 |
| 20260905131404 | 27 | 282 | 12.9 | 30.6 | 0.00 | 0.00 | 0.00 | 65 | 1014.5 |
| 20260905131303 | 27 | 316 | 12.9 | 30.6 | 0.00 | 0.00 | 0.00 | 66 | 1014.4 |
| 20260905131203 | 27 | 343 | 14.5 | 30.6 | 0.00 | 0.00 | 0.00 | 66 | 1014.4 |
| 20260905131102 | 27 | 5 | 12.9 | 41.8 | 0.00 | 0.00 | 0.00 | 67 | 1014.4 |
| 20260905131003 | 27 | 294 | 12.9 | 41.8 | 0.00 | 0.00 | 0.00 | 66 | 1014.4 |
| 20260905130903 | 27 | 268 | 12.9 | 41.8 | 0.00 | 0.00 | 0.00 | 66 | 1014.5 |
| 20260905130805 | 27 | 195 | 12.9 | 41.8 | 0.00 | 0.00 | 0.00 | 66 | 1014.4 |
| 20260905130702 | 27 | 268 | 12.9 | 41.8 | 0.00 | 0.00 | 0.00 | 66 | 1014.5 |
| 20260905130604 | 27 | 93 | 12.9 | 41.8 | 0.00 | 0.00 | 0.00 | 66 | 1014.4 |
| 20260905130502 | 27 | 306 | 12.9 | 41.8 | 0.00 | 0.00 | 0.00 | 66 | 1014.5 |
| 20260905130405 | 27 | 224 | 12.9 | 41.8 | 0.00 | 0.00 | 0.00 | 67 | 1014.4 |
| 20260905130302 | 27 | 239 | 12.9 | 41.8 | 0.00 | 0.00 | 0.00 | 67 | 1014.4 |
| 20260905130204 | 27 | 235 | 12.9 | 41.8 | 0.00 | 0.00 | 0.00 | 66 | 1014.4 |
| 20260905130004 | 27 | 221 | 12.9 | 29.0 | 0.00 | 0.00 | 0.00 | 67 | 1014.4 |
| 20260905125903 | 27 | 49 | 12.9 | 29.0 | 0.00 | 0.00 | 0.00 | 66 | 1014.4 |
| 20260905125804 | 27 | 38 | 12.9 | 29.0 | 0.00 | 0.00 | 0.00 | 66 | 1014.4 |
| 20260905125702 | 27 | 234 | 12.9 | 29.0 | 0.00 | 0.00 | 0.00 | 66 | 1014.4 |
| 20260905125602 | 27 | 350 | 12.9 | 29.0 | 0.00 | 0.00 | 0.00 | 66 | 1014.4 |
| 20260905125503 | 27 | 253 | 12.9 | 29.0 | 0.00 | 0.00 | 0.00 | 66 | 1014.3 |
| 20260905125403 | 27 | 268 | 12.9 | 27.4 | 0.00 | 0.00 | 0.00 | 66 | 1014.3 |
| 20260905125306 | 27 | 269 | 12.9 | 27.4 | 0.00 | 0.00 | 0.00 | 66 | 1014.5 |
| 20260905125204 | 27 | 252 | 14.5 | 32.2 | 0.00 | 0.00 | 0.00 | 67 | 1014.5 |
| 20260905125104 | 27 | 239 | 14.5 | 32.2 | 0.00 | 0.00 | 0.00 | 67 | 1014.4 |
| 20260905125005 | 27 | 266 | 14.5 | 32.2 | 0.00 | 0.00 | 0.00 | 66 | 1014.4 |
| 20260905124902 | 27 | 322 | 14.5 | 32.2 | 0.00 | 0.00 | 0.00 | 67 | 1014.4 |
| 20260905124804 | 27 | 309 | 14.5 | 32.2 | 0.00 | 0.00 | 0.00 | 67 | 1014.5 |
| 20260905124702 | 27 | 240 | 14.5 | 35.4 | 0.00 | 0.00 | 0.00 | 67 | 1014.5 |
| 20260905124604 | 27 | 245 | 16.1 | 35.4 | 0.00 | 0.00 | 0.00 | 67 | 1014.4 |
| 20260905124504 | 27 | 299 | 16.1 | 35.4 | 0.00 | 0.00 | 0.00 | 67 | 1014.5 |
| 20260905124402 | 27 | 312 | 16.1 | 35.4 | 0.00 | 0.00 | 0.00 | 67 | 1014.5 |
| 20260905124304 | 27 | 158 | 14.5 | 35.4 | 0.00 | 0.00 | 0.00 | 66 | 1014.3 |
| 20260905124203 | 27 | 309 | 14.5 | 35.4 | 0.00 | 0.00 | 0.00 | 67 | 1014.4 |
| 20260905124104 | 27 | 307 | 12.9 | 35.4 | 0.00 | 0.00 | 0.00 | 66 | 1014.4 |
| 20260905124004 | 27 | 0 | 12.9 | 35.4 | 0.00 | 0.00 | 0.00 | 67 | 1014.4 |
| 20260905123902 | 27 | 5 | 11.3 | 35.4 | 0.00 | 0.00 | 0.00 | 67 | 1014.5 |
| 20260905123803 | 27 | 0 | 11.3 | 35.4 | 0.00 | 0.00 | 0.00 | 67 | 1014.4 |
| 20260905123704 | 27 | 197 | 11.3 | 29.0 | 0.00 | 0.00 | 0.00 | 67 | 1014.5 |
| 20260905123602 | 27 | 268 | 12.9 | 29.0 | 0.00 | 0.00 | 0.00 | 66 | 1014.4 |
| 20260905123506 | 27 | 291 | 12.9 | 29.0 | 0.00 | 0.00 | 0.00 | 66 | 1014.4 |
| 20260905123403 | 27 | 272 | 12.9 | 29.0 | 0.00 | 0.00 | 0.00 | 66 | 1014.4 |
| 20260905123302 | 27 | 309 | 12.9 | 29.0 | 0.00 | 0.00 | 0.00 | 66 | 1014.4 |
| 20260905123203 | 27 | 237 | 12.9 | 29.0 | 0.00 | 0.00 | 0.00 | 66 | 1014.5 |
| 20260905123103 | 27 | 97 | 12.9 | 30.6 | 0.00 | 0.00 | 0.00 | 66 | 1014.4 |
| 20260905123002 | 27 | 192 | 14.5 | 30.6 | 0.00 | 0.00 | 0.00 | 66 | 1014.5 |
| 20260905122903 | 27 | 268 | 14.5 | 37.0 | 0.00 | 0.00 | 0.00 | 66 | 1014.3 |
| 20260905122802 | 27 | 289 | 14.5 | 37.0 | 0.00 | 0.00 | 0.00 | 66 | 1014.5 |
| 20260905122703 | 27 | 63 | 14.5 | 37.0 | 0.00 | 0.00 | 0.00 | 65 | 1014.3 |
| 20260905122603 | 27 | 5 | 12.9 | 37.0 | 0.00 | 0.00 | 0.00 | 65 | 1014.4 |
| 20260905122502 | 27 | 225 | 12.9 | 37.0 | 0.00 | 0.00 | 0.00 | 65 | 1014.5 |
| 20260905122403 | 27 | 286 | 12.9 | 37.0 | 0.00 | 0.00 | 0.00 | 64 | 1014.4 |
| 20260905122306 | 27 | 318 | 11.3 | 37.0 | 0.00 | 0.00 | 0.00 | 65 | 1014.4 |
| 20260905122202 | 27 | 332 | 11.3 | 37.0 | 0.00 | 0.00 | 0.00 | 65 | 1014.4 |
| 20260905122102 | 27 | 318 | 12.9 | 37.0 | 0.00 | 0.00 | 0.00 | 65 | 1014.4 |
| 20260905122002 | 27 | 255 | 12.9 | 37.0 | 0.00 | 0.00 | 0.00 | 65 | 1014.3 |
| 20260905121906 | 27 | 284 | 12.9 | 30.6 | 0.00 | 0.00 | 0.00 | 65 | 1014.5 |
| 20260905121807 | 27 | 283 | 12.9 | 30.6 | 0.00 | 0.00 | 0.00 | 65 | 1014.5 |
| 20260905121703 | 27 | 322 | 12.9 | 30.6 | 0.00 | 0.00 | 0.00 | 65 | 1014.5 |
| 20260905121602 | 27 | 5 | 14.5 | 32.2 | 0.00 | 0.00 | 0.00 | 64 | 1014.4 |
| 20260905121502 | 27 | 291 | 14.5 | 32.2 | 0.00 | 0.00 | 0.00 | 64 | 1014.3 |
| 20260905121405 | 27 | 295 | 14.5 | 32.2 | 0.00 | 0.00 | 0.00 | 64 | 1014.4 |
| 20260905121306 | 27 | 317 | 14.5 | 32.2 | 0.00 | 0.00 | 0.00 | 64 | 1014.5 |
| 20260905121204 | 27 | 121 | 16.1 | 35.4 | 0.00 | 0.00 | 0.00 | 64 | 1014.3 |
| 20260905121105 | 27 | 268 | 14.5 | 35.4 | 0.00 | 0.00 | 0.00 | 64 | 1014.5 |
| 20260905121002 | 27 | 274 | 16.1 | 35.4 | 0.00 | 0.00 | 0.00 | 64 | 1014.4 |
| 20260905120904 | 27 | 237 | 16.1 | 35.4 | 0.00 | 0.00 | 0.00 | 64 | 1014.5 |
| 20260905120804 | 27 | 5 | 16.1 | 35.4 | 0.00 | 0.00 | 0.00 | 64 | 1014.6 |
| 20260905120703 | 27 | 81 | 17.7 | 35.4 | 0.00 | 0.00 | 0.00 | 64 | 1014.3 |
| 20260905120602 | 27 | 292 | 17.7 | 41.8 | 0.00 | 0.00 | 0.00 | 64 | 1014.5 |
| 20260905120504 | 27 | 307 | 17.7 | 41.8 | 0.00 | 0.00 | 0.00 | 63 | 1014.5 |
| 20260905120402 | 27 | 284 | 17.7 | 41.8 | 0.00 | 0.00 | 0.00 | 64 | 1014.5 |
| 20260905120305 | 27 | 309 | 16.1 | 41.8 | 0.00 | 0.00 | 0.00 | 63 | 1014.3 |
| 20260905120203 | 27 | 300 | 16.1 | 41.8 | 0.00 | 0.00 | 0.00 | 64 | 1014.3 |
| 20260905120004 | 27 | 311 | 17.7 | 41.8 | 0.00 | 0.00 | 0.00 | 63 | 1014.3 |
| 20260905115903 | 27 | 228 | 16.1 | 41.8 | 0.00 | 0.00 | 0.00 | 64 | 1014.5 |
| 20260905115802 | 27 | 296 | 17.7 | 41.8 | 0.00 | 0.00 | 0.00 | 64 | 1014.5 |
| 20260905115703 | 27 | 10 | 16.1 | 41.8 | 0.00 | 0.00 | 0.00 | 63 | 1014.5 |
| 20260905115602 | 27 | 311 | 17.7 | 37.0 | 0.00 | 0.00 | 0.00 | 63 | 1014.5 |
| 20260905115506 | 27 | 5 | 17.7 | 37.0 | 0.00 | 0.00 | 0.00 | 64 | 1014.4 |
| 20260905115403 | 27 | 5 | 17.7 | 35.4 | 0.00 | 0.00 | 0.00 | 64 | 1014.7 |
| 20260905115306 | 27 | 336 | 17.7 | 35.4 | 0.00 | 0.00 | 0.00 | 64 | 1014.3 |
| 20260905115204 | 27 | 277 | 19.3 | 35.4 | 0.00 | 0.00 | 0.00 | 64 | 1014.5 |
| 20260905115103 | 27 | 341 | 17.7 | 35.4 | 0.00 | 0.00 | 0.00 | 64 | 1014.5 |
| 20260905115003 | 27 | 300 | 17.7 | 35.4 | 0.00 | 0.00 | 0.00 | 64 | 1014.5 |
| 20260905114902 | 27 | 311 | 17.7 | 35.4 | 0.00 | 0.00 | 0.00 | 64 | 1014.6 |
| 20260905114804 | 27 | 335 | 16.1 | 35.4 | 0.00 | 0.00 | 0.00 | 64 | 1014.5 |
| 20260905114704 | 27 | 305 | 14.5 | 35.4 | 0.00 | 0.00 | 0.00 | 64 | 1014.5 |
| 20260905114603 | 27 | 334 | 14.5 | 35.4 | 0.00 | 0.00 | 0.00 | 64 | 1014.4 |
| 20260905114504 | 27 | 263 | 14.5 | 35.4 | 0.00 | 0.00 | 0.00 | 64 | 1014.4 |
| 20260905114403 | 27 | 353 | 14.5 | 35.4 | 0.00 | 0.00 | 0.00 | 64 | 1014.4 |
| 20260905114304 | 27 | 295 | 12.9 | 35.4 | 0.00 | 0.00 | 0.00 | 64 | 1014.4 |
| 20260905114203 | 27 | 282 | 11.3 | 30.6 | 0.00 | 0.00 | 0.00 | 63 | 1014.3 |
| 20260905114102 | 27 | 255 | 11.3 | 29.0 | 0.00 | 0.00 | 0.00 | 63 | 1014.2 |
| 20260905114003 | 27 | 307 | 11.3 | 29.0 | 0.00 | 0.00 | 0.00 | 64 | 1014.2 |
| 20260905113904 | 27 | 153 | 11.3 | 30.6 | 0.00 | 0.00 | 0.00 | 64 | 1014.1 |
| 20260905113803 | 27 | 237 | 9.7 | 30.6 | 0.00 | 0.00 | 0.00 | 64 | 1014.2 |
| 20260905113704 | 27 | 0 | 9.7 | 30.6 | 0.00 | 0.00 | 0.00 | 63 | 1014.1 |
| 20260905113604 | 27 | 301 | 9.7 | 30.6 | 0.00 | 0.00 | 0.00 | 64 | 1014.0 |
| 20260905113504 | 27 | 276 | 9.7 | 30.6 | 0.00 | 0.00 | 0.00 | 64 | 1014.0 |
| 20260905113404 | 27 | 231 | 9.7 | 30.6 | 0.00 | 0.00 | 0.00 | 64 | 1014.2 |
| 20260905113304 | 27 | 65 | 9.7 | 30.6 | 0.00 | 0.00 | 0.00 | 64 | 1014.2 |
| 20260905113203 | 27 | 24 | 11.3 | 30.6 | 0.00 | 0.00 | 0.00 | 64 | 1014.2 |
| 20260905113104 | 27 | 77 | 11.3 | 30.6 | 0.00 | 0.00 | 0.00 | 63 | 1014.1 |
| 20260905113006 | 27 | 314 | 11.3 | 30.6 | 0.00 | 0.00 | 0.00 | 64 | 1014.3 |
| 20260905112903 | 28 | 241 | 11.3 | 27.4 | 0.00 | 0.00 | 0.00 | 64 | 1014.2 |
| 20260905112803 | 27 | 345 | 12.9 | 27.4 | 0.00 | 0.00 | 0.00 | 63 | 1014.1 |
| 20260905112703 | 27 | 0 | 12.9 | 29.0 | 0.00 | 0.00 | 0.00 | 64 | 1014.2 |
| 20260905112603 | 27 | 300 | 12.9 | 32.2 | 0.00 | 0.00 | 0.00 | 64 | 1014.2 |
| 20260905112502 | 27 | 276 | 14.5 | 32.2 | 0.00 | 0.00 | 0.00 | 64 | 1014.2 |
| 20260905112402 | 27 | 278 | 14.5 | 32.2 | 0.00 | 0.00 | 0.00 | 64 | 1014.2 |
| 20260905112305 | 27 | 289 | 14.5 | 32.2 | 0.00 | 0.00 | 0.00 | 64 | 1014.2 |
| 20260905112206 | 27 | 337 | 14.5 | 41.8 | 0.00 | 0.00 | 0.00 | 64 | 1014.3 |
| 20260905112103 | 27 | 289 | 16.1 | 41.8 | 0.00 | 0.00 | 0.00 | 64 | 1014.3 |
| 20260905112002 | 27 | 282 | 16.1 | 41.8 | 0.00 | 0.00 | 0.00 | 64 | 1014.3 |
| 20260905111902 | 27 | 74 | 16.1 | 41.8 | 0.00 | 0.00 | 0.00 | 64 | 1014.3 |
| 20260905111803 | 27 | 336 | 16.1 | 41.8 | 0.00 | 0.00 | 0.00 | 64 | 1014.3 |
| 20260905111703 | 27 | 280 | 16.1 | 41.8 | 0.00 | 0.00 | 0.00 | 64 | 1014.2 |
| 20260905111603 | 27 | 289 | 16.1 | 41.8 | 0.00 | 0.00 | 0.00 | 64 | 1014.3 |
| 20260905111502 | 27 | 353 | 16.1 | 41.8 | 0.00 | 0.00 | 0.00 | 64 | 1014.2 |
| 20260905111405 | 27 | 278 | 16.1 | 41.8 | 0.00 | 0.00 | 0.00 | 63 | 1014.4 |
| 20260905111303 | 27 | 76 | 16.1 | 41.8 | 0.00 | 0.00 | 0.00 | 64 | 1014.2 |
| 20260905111203 | 27 | 269 | 16.1 | 38.6 | 0.00 | 0.00 | 0.00 | 63 | 1014.2 |
| 20260905111103 | 27 | 314 | 14.5 | 38.6 | 0.00 | 0.00 | 0.00 | 63 | 1014.2 |
| 20260905111002 | 27 | 293 | 16.1 | 32.2 | 0.00 | 0.00 | 0.00 | 63 | 1014.3 |
| 20260905110903 | 27 | 295 | 16.1 | 32.2 | 0.00 | 0.00 | 0.00 | 64 | 1014.4 |
| 20260905110803 | 27 | 270 | 16.1 | 32.2 | 0.00 | 0.00 | 0.00 | 64 | 1014.3 |
| 20260905110702 | 27 | 274 | 16.1 | 32.2 | 0.00 | 0.00 | 0.00 | 64 | 1014.3 |
| 20260905110605 | 27 | 49 | 16.1 | 32.2 | 0.00 | 0.00 | 0.00 | 63 | 1014.3 |
| 20260905110501 | 27 | 282 | 16.1 | 32.2 | 0.00 | 0.00 | 0.00 | 63 | 1014.3 |
| 20260905110403 | 27 | 298 | 16.1 | 32.2 | 0.00 | 0.00 | 0.00 | 63 | 1014.2 |
| 20260905110302 | 27 | 39 | 16.1 | 32.2 | 0.00 | 0.00 | 0.00 | 63 | 1014.2 |
| 20260905110203 | 27 | 307 | 17.7 | 33.8 | 0.00 | 0.00 | 0.00 | 64 | 1014.4 |
| 20260905110004 | 27 | 291 | 16.1 | 33.8 | 0.00 | 0.00 | 0.00 | 63 | 1014.3 |
| 20260905105902 | 27 | 307 | 17.7 | 33.8 | 0.00 | 0.00 | 0.00 | 63 | 1014.4 |
| 20260905105805 | 27 | 336 | 17.7 | 33.8 | 0.00 | 0.00 | 0.00 | 63 | 1014.3 |
| 20260905105702 | 27 | 18 | 16.1 | 33.8 | 0.00 | 0.00 | 0.00 | 63 | 1014.3 |
| 20260905105603 | 27 | 353 | 16.1 | 33.8 | 0.00 | 0.00 | 0.00 | 64 | 1014.4 |
| 20260905105502 | 27 | 334 | 16.1 | 33.8 | 0.00 | 0.00 | 0.00 | 64 | 1014.3 |
| 20260905105402 | 27 | 326 | 16.1 | 33.8 | 0.00 | 0.00 | 0.00 | 64 | 1014.4 |
| 20260905105306 | 27 | 5 | 16.1 | 33.8 | 0.00 | 0.00 | 0.00 | 64 | 1014.5 |
| 20260905105204 | 27 | 318 | 14.5 | 35.4 | 0.00 | 0.00 | 0.00 | 64 | 1014.4 |
| 20260905105103 | 27 | 263 | 14.5 | 35.4 | 0.00 | 0.00 | 0.00 | 64 | 1014.4 |
| 20260905105007 | 27 | 331 | 14.5 | 35.4 | 0.00 | 0.00 | 0.00 | 64 | 1014.4 |
| 20260905104903 | 27 | 290 | 14.5 | 35.4 | 0.00 | 0.00 | 0.00 | 64 | 1014.4 |
| 20260905104803 | 27 | 290 | 14.5 | 35.4 | 0.00 | 0.00 | 0.00 | 64 | 1014.4 |
| 20260905104703 | 27 | 322 | 14.5 | 35.4 | 0.00 | 0.00 | 0.00 | 65 | 1014.4 |
| 20260905104603 | 27 | 252 | 14.5 | 35.4 | 0.00 | 0.00 | 0.00 | 64 | 1014.4 |
| 20260905104503 | 27 | 43 | 16.1 | 35.4 | 0.00 | 0.00 | 0.00 | 64 | 1014.4 |
| 20260905104403 | 27 | 28 | 16.1 | 35.4 | 0.00 | 0.00 | 0.00 | 64 | 1014.5 |
| 20260905104302 | 27 | 265 | 16.1 | 35.4 | 0.00 | 0.00 | 0.00 | 63 | 1014.3 |
| 20260905104202 | 27 | 278 | 16.1 | 29.0 | 0.00 | 0.00 | 0.00 | 63 | 1014.6 |
| 20260905104105 | 27 | 337 | 17.7 | 29.0 | 0.00 | 0.00 | 0.00 | 64 | 1014.4 |
| 20260905104003 | 27 | 5 | 17.7 | 32.2 | 0.00 | 0.00 | 0.00 | 64 | 1014.3 |
| 20260905103902 | 27 | 44 | 16.1 | 32.2 | 0.00 | 0.00 | 0.00 | 63 | 1014.2 |
| 20260905103804 | 27 | 270 | 17.7 | 32.2 | 0.00 | 0.00 | 0.00 | 63 | 1014.3 |
| 20260905103703 | 27 | 311 | 17.7 | 33.8 | 0.00 | 0.00 | 0.00 | 63 | 1014.4 |
| 20260905103603 | 27 | 343 | 17.7 | 33.8 | 0.00 | 0.00 | 0.00 | 63 | 1014.3 |
| 20260905103503 | 27 | 338 | 17.7 | 35.4 | 0.00 | 0.00 | 0.00 | 63 | 1014.3 |
| 20260905103403 | 27 | 5 | 17.7 | 35.4 | 0.00 | 0.00 | 0.00 | 63 | 1014.2 |
| 20260905103303 | 27 | 330 | 17.7 | 35.4 | 0.00 | 0.00 | 0.00 | 63 | 1014.1 |
| 20260905103205 | 27 | 286 | 17.7 | 35.4 | 0.00 | 0.00 | 0.00 | 64 | 1014.2 |
| 20260905103104 | 27 | 292 | 19.3 | 35.4 | 0.00 | 0.00 | 0.00 | 64 | 1014.2 |
| 20260905103003 | 27 | 321 | 19.3 | 35.4 | 0.00 | 0.00 | 0.00 | 64 | 1014.3 |
| 20260905102903 | 27 | 323 | 19.3 | 37.0 | 0.00 | 0.00 | 0.00 | 65 | 1014.2 |
| 20260905102802 | 27 | 54 | 20.9 | 37.0 | 0.00 | 0.00 | 0.00 | 65 | 1014.2 |
| 20260905102709 | 27 | 301 | 20.9 | 37.0 | 0.00 | 0.00 | 0.00 | 66 | 1014.3 |
| 20260905102603 | 27 | 316 | 19.3 | 38.6 | 0.00 | 0.00 | 0.00 | 65 | 1014.2 |
| 20260905102503 | 27 | 284 | 19.3 | 38.6 | 0.00 | 0.00 | 0.00 | 65 | 1014.4 |
| 20260905102405 | 27 | 283 | 19.3 | 38.6 | 0.00 | 0.00 | 0.00 | 65 | 1014.2 |
| 20260905102306 | 27 | 248 | 19.3 | 38.6 | 0.00 | 0.00 | 0.00 | 66 | 1014.2 |
| 20260905102208 | 26 | 276 | 19.3 | 38.6 | 0.00 | 0.00 | 0.00 | 66 | 1014.3 |
| 20260905102102 | 26 | 325 | 19.3 | 38.6 | 0.00 | 0.00 | 0.00 | 66 | 1014.3 |
| 20260905102006 | 26 | 318 | 19.3 | 38.6 | 0.00 | 0.00 | 0.00 | 66 | 1014.4 |
| 20260905101903 | 26 | 293 | 19.3 | 38.6 | 0.00 | 0.00 | 0.00 | 66 | 1014.4 |
| 20260905101804 | 27 | 321 | 17.7 | 38.6 | 0.00 | 0.00 | 0.00 | 66 | 1014.4 |
| 20260905101706 | 27 | 318 | 17.7 | 38.6 | 0.00 | 0.00 | 0.00 | 66 | 1014.2 |
| 20260905101603 | 27 | 336 | 19.3 | 38.6 | 0.00 | 0.00 | 0.00 | 66 | 1014.3 |
| 20260905101506 | 27 | 280 | 19.3 | 38.6 | 0.00 | 0.00 | 0.00 | 66 | 1014.3 |
| 20260905101403 | 27 | 5 | 19.3 | 38.6 | 0.00 | 0.00 | 0.00 | 67 | 1014.3 |
| 20260905101304 | 26 | 347 | 19.3 | 38.6 | 0.00 | 0.00 | 0.00 | 67 | 1014.1 |
| 20260905101204 | 26 | 294 | 19.3 | 38.6 | 0.00 | 0.00 | 0.00 | 67 | 1014.1 |
| 20260905101100 | 27 | 268 | 19.3 | 38.6 | 0.00 | 0.00 | 0.00 | 67 | 1014.2 |
| 20260905101002 | 27 | 284 | 19.3 | 38.6 | 0.00 | 0.00 | 0.00 | 68 | 1014.2 |
| 20260905100902 | 27 | 318 | 19.3 | 38.6 | 0.00 | 0.00 | 0.00 | 67 | 1014.2 |
| 20260905100800 | 26 | 5 | 19.3 | 38.6 | 0.00 | 0.00 | 0.00 | 68 | 1014.2 |
| 20260905100703 | 26 | 352 | 19.3 | 38.6 | 0.00 | 0.00 | 0.00 | 68 | 1014.1 |
| 20260905100553 | 26 | 273 | 19.3 | 33.8 | 0.00 | 0.00 | 0.00 | 68 | 1014.3 |
| 20260905100455 | 26 | 351 | 19.3 | 41.8 | 0.00 | 0.00 | 0.00 | 68 | 1014.2 |
| 20260905100356 | 26 | 23 | 20.9 | 41.8 | 0.00 | 0.00 | 0.00 | 68 | 1014.1 |
| 20260905100257 | 26 | 316 | 20.9 | 41.8 | 0.00 | 0.00 | 0.00 | 68 | 1014.3 |
| 20260905100150 | 26 | 303 | 20.9 | 41.8 | 0.00 | 0.00 | 0.00 | 68 | 1014.1 |
| 20260905100050 | 26 | 303 | 20.9 | 41.8 | 0.00 | 0.00 | 0.00 | 68 | 1014.3 |
| 20260905095949 | 26 | 300 | 19.3 | 41.8 | 0.00 | 0.00 | 0.00 | 67 | 1014.3 |
| 20260905095849 | 26 | 278 | 20.9 | 41.8 | 0.00 | 0.00 | 0.00 | 67 | 1014.2 |
| 20260905095749 | 26 | 309 | 19.3 | 41.8 | 0.00 | 0.00 | 0.00 | 67 | 1014.2 |
| 20260905095644 | 26 | 315 | 19.3 | 41.8 | 0.00 | 0.00 | 0.00 | 67 | 1014.3 |
| 20260905095543 | 26 | 284 | 19.3 | 40.2 | 0.00 | 0.00 | 0.00 | 67 | 1014.3 |
| 20260905095445 | 26 | 54 | 19.3 | 40.2 | 0.00 | 0.00 | 0.00 | 68 | 1014.2 |
| 20260905095345 | 26 | 315 | 17.7 | 40.2 | 0.00 | 0.00 | 0.00 | 68 | 1014.2 |
| 20260905095242 | 26 | 0 | 17.7 | 40.2 | 0.00 | 0.00 | 0.00 | 67 | 1014.2 |
| 20260905095137 | 26 | 292 | 17.7 | 40.2 | 0.00 | 0.00 | 0.00 | 67 | 1014.2 |
| 20260905095037 | 26 | 316 | 16.1 | 40.2 | 0.00 | 0.00 | 0.00 | 67 | 1014.4 |
| 20260905094938 | 26 | 353 | 16.1 | 40.2 | 0.00 | 0.00 | 0.00 | 67 | 1014.3 |
| 20260905094837 | 27 | 274 | 16.1 | 35.4 | 0.00 | 0.00 | 0.00 | 67 | 1014.3 |
| 20260905094736 | 27 | 318 | 16.1 | 35.4 | 0.00 | 0.00 | 0.00 | 67 | 1014.2 |
| 20260905094637 | 27 | 314 | 16.1 | 33.8 | 0.00 | 0.00 | 0.00 | 65 | 1014.3 |
| 20260905094536 | 27 | 324 | 14.5 | 30.6 | 0.00 | 0.00 | 0.00 | 66 | 1014.4 |
| 20260905094436 | 27 | 285 | 16.1 | 30.6 | 0.00 | 0.00 | 0.00 | 66 | 1014.2 |
| 20260905094334 | 27 | 263 | 16.1 | 30.6 | 0.00 | 0.00 | 0.00 | 66 | 1014.3 |
| 20260905094235 | 27 | 262 | 14.5 | 30.6 | 0.00 | 0.00 | 0.00 | 66 | 1014.2 |
| 20260905094134 | 27 | 341 | 16.1 | 30.6 | 0.00 | 0.00 | 0.00 | 67 | 1014.1 |
| 20260905094032 | 27 | 247 | 16.1 | 30.6 | 0.00 | 0.00 | 0.00 | 67 | 1014.3 |
| 20260905093934 | 27 | 189 | 14.5 | 30.6 | 0.00 | 0.00 | 0.00 | 66 | 1014.3 |
| 20260905093835 | 27 | 345 | 14.5 | 30.6 | 0.00 | 0.00 | 0.00 | 66 | 1014.2 |
| 20260905093732 | 27 | 274 | 12.9 | 30.6 | 0.00 | 0.00 | 0.00 | 66 | 1014.5 |
| 20260905093631 | 27 | 72 | 12.9 | 29.0 | 0.00 | 0.00 | 0.00 | 67 | 1014.4 |
| 20260905093532 | 27 | 14 | 12.9 | 29.0 | 0.00 | 0.00 | 0.00 | 66 | 1014.4 |
| 20260905093433 | 27 | 316 | 11.3 | 25.7 | 0.00 | 0.00 | 0.00 | 66 | 1014.3 |
| 20260905093333 | 27 | 328 | 11.3 | 25.7 | 0.00 | 0.00 | 0.00 | 66 | 1014.5 |